     2.00           OBSERVATION DATA    G (GPS)             RINEX VERSION / TYPE
teqc 1998Oct7 Victoria Andreatta 19981229 21:43:29UTC       PGM / RUN BY / DATE
Linux 2.0.30|PentPro|gcc|Linux|486/DX+                      COMMENT
????                                                        MARKER NAME
???                                                         OBSERVER / AGENCY
0 TURBOROGUE 96.03.24                                       REC # / TYPE / VERS
unknown unknown                                             ANT # / TYPE
 -1286006.4765 -4719365.5316  4082075.7211                  APPROX POSITION XYZ
        0.0000        0.0000        0.0000                  ANTENNA: DELTA H/E/N
     1     1                                                WAVELENGTH FACT L1/2
     5    L1    L2    C1    P2    P1                        # / TYPES OF OBSERV
SNR is mapped to RINEX snr flag value [1,4-9]               COMMENT
SNR: >316 >100 >31.6 >10 >3.2 >0 bad=0                      COMMENT
L1 & L2: 9 8 7 6 5 4 1                                      COMMENT
  1998    10    31     0     0    0.000000      GPS         TIME OF FIRST OBS
                                                            END OF HEADER
 98 10 31  0  0  0.0000000  0  8G31G 3G27G13G 2G19G18G10
  -2363755.69149  -1841885.13944  21524514.4594   21524517.2824
    193422.68349    150720.20144  22203510.6944   22203512.6594
  -2920836.60249  -2275973.13044  23372889.0574   23372893.0294
  -3332655.78749  -2596870.18944  23033199.5584   23033200.5374
   -970902.25048   -756544.91844  25248712.5384   25248716.9464
  -1505904.58049  -1173431.30045  20823506.1434   20823508.5004
    541395.56849    421867.50545  20215669.2334   20215671.3554
  -1561059.04248  -1216405.23744  24533259.8304   24533268.7354
 98 10 31  0  0  1.0000000  0  8G31G 3G27G13G 2G19G18G10
  -2365660.56049  -1843369.43144  21524152.2834   21524155.1464
    193963.29749    151141.46644  22203613.4414   22203615.7794
  -2923541.83449  -2278081.08044  23372374.3794   23372378.1884
  -3335626.50949  -2599185.03044  23032634.2764   23032634.7864
   -973806.98048   -758808.37844  25248158.8304   25248162.5114
  -1507205.97549  -1174445.37045  20823258.4174   20823260.7334
    542256.36849    422538.26145  20215832.9284   20215835.0654
  -1562208.10148  -1217300.75144  24533041.3524   24533047.5184
 98 10 31  0  0  2.0000000  0  8G31G 3G27G13G 2G19G18G10
  -2367564.77149  -1844853.24544  21523790.0264   21523792.8554
    194504.63149    151563.28944  22203716.8844   22203719.3354
  -2926246.96649  -2280188.95944  23371859.1354   23371863.1314
  -3338596.89249  -2601499.64644  23032069.2744   23032070.2714
   -976711.51448   -761071.73644  25247606.7884   25247611.2654
  -1508507.05349  -1175459.19845  20823010.9724   20823013.3734
    543117.87749    423209.56345  20215997.0024   20215999.1984
  -1563356.48948  -1218195.42144  24532822.9474   24532827.7904
 98 10 31  0  0  3.0000000  0  8G31G 3G27G13G 2G19G18G10
  -2369468.81749  -1846336.92044  21523428.0694   21523430.9414
    195046.17849    151985.28744  22203819.8444   22203822.0034
  -2928952.48549  -2282297.18144  23371344.1294   23371348.2724
  -3341567.43449  -2603814.33144  23031504.1064   23031504.8824
   -979616.36948   -763335.24244  25247054.2204   25247059.3914
  -1509808.31249  -1176473.16145  20822763.2904   20822765.6674
    543979.58649    423881.02545  20216160.9824   20216163.1574
  -1564504.71248  -1219090.71244  24532603.3094   24532610.5924
 98 10 31  0  0  4.0000000  0  8G31G 3G27G13G 2G19G18G10
  -2371372.34649  -1847820.17844  21523065.7574   21523068.6104
    195588.29049    152407.70644  22203922.9634   22203925.3804
  -2931658.05849  -2284405.40644  23370828.9084   23370832.7794
  -3344537.78949  -2606128.86944  23030938.7214   23030939.6934
   -982521.20048   -765598.73044  25246500.9154   25246506.3614
  -1511109.39549  -1177486.98545  20822515.7704   20822518.1314
    544841.85349    424552.92745  20216325.0224   20216327.1424
  -1565652.40848  -1219984.42044  24532385.8204   24532393.1014
 98 10 31  0  0  5.0000000  0  8G31G 3G27G13G 2G19G18G10
  -2373275.14349  -1849302.87544  21522703.9784   21522706.8874
    196131.18649    152830.73944  22204026.5514   22204029.0514
  -2934363.45349  -2286513.51044  23370313.8664   23370317.4994
  -3347507.73349  -2608443.12444  23030373.9164   23030374.5564
   -985425.80148   -767862.07944  25245947.2464   25245953.0424
  -1512410.08549  -1178500.51145  20822268.2714   20822270.7414
    545704.89549    425225.42945  20216489.3314   20216491.4864
  -1566799.36148  -1220878.21544  24532167.5324   24532175.4524
 98 10 31  0  0  6.0000000  0  8G31G 3G27G13G 2G19G18G10
  -2375177.42049  -1850785.17344  21522342.1804   21522344.9664
    196674.66749    153254.23644  22204129.7064   22204131.7954
  -2937068.87349  -2288621.65144  23369798.9234   23369802.4024
  -3350477.46949  -2610757.22244  23029808.5824   23029809.2034
   -988330.31448   -770125.33844  25245395.0224   25245401.4584
  -1513710.59249  -1179513.89745  20822020.6204   20822023.0504
    546568.51449    425898.37645  20216653.4904   20216655.6714
  -1567945.78848  -1221771.63044  24531948.9594   24531955.6334
 98 10 31  0  0  7.0000000  0  8G31G 3G27G13G 2G19G18G10
  -2377079.25849  -1852267.12744  21521980.5814   21521983.3304
    197218.64049    153678.10144  22204233.0694   22204235.3134
  -2939774.40949  -2290729.82344  23369284.0374   23369287.9484
  -3353447.10349  -2613071.18244  23029243.6944   23029244.3494
   -991234.89148   -772388.61144  25244842.7204   25244848.9844
  -1515011.00549  -1180527.20745  20821773.3434   20821775.7664
    547432.61849    426571.70545  20216818.0604   20216820.2304
  -1569091.76148  -1222664.22244  24531730.6844   24531737.6374
 98 10 31  0  0  8.0000000  0  8G31G 3G27G13G 2G19G18G10
  -2378980.47049  -1853748.58644  21521618.9414   21521621.7484
    197763.30049    154102.53744  22204336.5594   22204339.0774
  -2942479.86749  -2292837.94444  23368769.5864   23368773.3564
  -3356416.43649  -2615384.94744  23028678.4284   23028678.9814
   -994139.32248   -774651.75944  25244289.6684   25244295.5824
  -1516311.12249  -1181540.27845  20821525.8744   20821528.3634
    548297.39549    427245.56145  20216982.6524   20216984.8294
  -1570237.08648  -1223557.10844  24531513.1844   24531517.7514
 98 10 31  0  0  9.0000000  0  8G31G 3G27G13G 2G19G18G10
  -2380881.00449  -1855229.51444  21521257.2714   21521259.9994
    198308.70349    154527.52244  22204440.7064   22204442.9284
  -2945185.18949  -2294946.00144  23368254.3624   23368258.4874
  -3359385.40449  -2617698.42644  23028113.1954   23028113.7174
   -997043.53148   -776914.54244  25243737.4264   25243746.3534
  -1517610.89649  -1182553.09245  20821278.4894   20821280.9674
    549162.91449    427919.98545  20217147.1744   20217149.3944
  -1571381.72148  -1224448.83244  24531294.6024   24531302.2334
 98 10 31  0  0 10.0000000  0  8G31G 3G27G13G 2G19G18G10
  -2382780.90849  -1856709.94444  21520895.4334   21520898.0574
    198854.79949    154953.05244  22204544.4994   22204546.8624
  -2947890.43049  -2297053.99444  23367739.9094   23367744.3194
  -3362354.07449  -2620011.69544  23027548.3074   23027548.6254
   -999947.58948   -779177.82344  25243183.9994   25243193.4374
  -1518910.35149  -1183565.65245  20821031.2354   20821033.7234
    550029.11449    428594.95045  20217312.0554   20217314.2504
  -1572525.68648  -1225340.31544  24531077.4134   24531084.5274
 98 10 31  0  0 11.0000000  0  8G31G 3G27G13G 2G19G18G10
  -2384680.27149  -1858189.97044  21520533.9434   21520536.6524
    199401.50749    155379.05544  22204648.3854   22204650.9184
  -2950595.66449  -2299161.96144  23367225.0554   23367229.5954
  -3365322.51949  -2622324.71544  23026983.3924   23026984.0404
  -1002851.56548   -781440.63644  25242631.1474   25242637.9024
  -1520209.57549  -1184578.03045  20820783.9964   20820786.4954
    550895.91349    429270.38045  20217477.1834   20217479.4074
  -1573669.09548  -1226231.33844  24530859.9054   24530866.2384
 98 10 31  0  0 12.0000000  0  8G31G 3G27G13G 2G19G18G10
  -2386578.36649  -1859669.01344  21520172.6404   21520175.2134
    199949.54549    155806.08344  22204752.8194   22204755.0514
  -2953300.17649  -2301269.37844  23366710.6604   23366714.6194
  -3368290.02449  -2624637.07144  23026418.5804   23026419.0194
  -1005754.74248   -783702.63144  25242078.6304   25242083.5434
  -1521507.85249  -1185589.67045  20820536.9354   20820539.4794
    551764.04049    429946.83845  20217642.5124   20217644.7374
  -1574811.20248  -1227121.27344  24530641.8834   24530650.3464
 98 10 31  0  0 13.0000000  0  8G31G 3G27G13G 2G19G18G10
  -2388475.18849  -1861147.04644  21519811.5484   21519814.0664
    200498.93749    156234.19244  22204857.3364   22204859.4774
  -2956003.94049  -2303376.18144  23366195.7464   23366199.9934
  -3371256.57549  -2626948.67544  23025854.2584   23025855.0794
  -1008657.11048   -785964.34544  25241526.2064   25241533.1984
  -1522805.15849  -1186600.55345  20820290.1094   20820292.5374
    552633.50149    430624.34245  20217807.9794   20217810.1874
  -1575951.99148  -1228010.15244  24530425.1784   24530432.3494
 98 10 31  0  0 14.0000000  0  8G31G 3G27G13G 2G19G18G10
  -2390371.48249  -1862624.66944  21519450.7174   21519453.3744
    201048.93549    156662.77444  22204961.8654   22204964.2884
  -2958707.71649  -2305483.02444  23365681.2194   23365685.8834
  -3374222.91749  -2629260.14244  23025289.2464   23025289.6834
  -1011559.40248   -788225.85144  25240974.2534   25240983.1014
  -1524102.24749  -1187611.27145  20820043.2874   20820045.7484
    553503.55249    431302.30945  20217973.4294   20217975.6304
  -1577092.22748  -1228898.53244  24530207.8154   24530211.8604
 98 10 31  0  0 15.0000000  0  8G31G 3G27G13G 2G19G18G10
  -2392267.43649  -1864102.04444  21519089.9574   21519092.5064
    201599.36249    157091.67244  22205066.5804   22205068.7224
  -2961411.67049  -2307589.99844  23365166.6704   23365171.3784
  -3377189.22549  -2631571.51244  23024724.8764   23024725.4394
  -1014461.81648   -790487.41744  25240421.9434   25240430.9744
  -1525399.27849  -1188621.94445  20819796.5104   20819799.0534
    554374.01849    431980.59345  20218139.1024   20218141.2764
  -1578232.11148  -1229786.79744  24529990.8794   24529997.9344
 98 10 31  0  0 16.0000000  0  8G31G 3G27G13G 2G19G18G10
  -2394162.74349  -1865578.90344  21518729.2984   21518731.7894
    202150.51849    157521.14544  22205171.6394   22205173.8264
  -2964115.50549  -2309696.85844  23364652.0734   23364657.2074
  -3380155.21749  -2633882.68044  23024160.5354   23024161.1604
  -1017364.03848   -792748.89144  25239869.7054   25239879.2124
  -1526695.95049  -1189632.33445  20819549.6954   20819552.2624
    555245.18749    432659.42845  20218304.8574   20218306.9894
  -1579371.28148  -1230674.50444  24529774.7264   24529781.8864
 98 10 31  0  0 17.0000000  0  8G31G 3G27G13G 2G19G18G10
  -2396057.58249  -1867055.40544  21518368.7404   21518371.1274
    202702.21649    157951.05144  22205276.5714   22205278.8734
  -2966819.39849  -2311803.77144  23364137.7594   23364143.1684
  -3383121.05149  -2636193.72544  23023596.0024   23023596.8064
  -1020266.24648   -795010.35444  25239317.6564   25239326.7014
  -1527992.46649  -1190642.61045  20819303.0954   20819305.5964
    556116.88849    433338.67145  20218470.6984   20218472.9044
  -1580509.97248  -1231561.72344  24529557.9364   24529564.6924
 98 10 31  0  0 18.0000000  0  8G31G 3G27G13G 2G19G18G10
  -2397952.06349  -1868531.62144  21518008.4904   21518010.9784
    203254.34749    158381.28344  22205381.8954   22205384.0014
  -2969523.46649  -2313910.87244  23363622.3724   23363627.0504
  -3386086.84249  -2638504.72044  23023031.5784   23023031.9344
  -1023168.56148   -797271.90944  25238765.9434   25238775.8364
  -1529288.93349  -1191652.84145  20819056.2504   20819058.7904
    556989.00549    434018.24445  20218636.5634   20218638.7444
  -1581648.26948  -1232448.79144  24529341.8434   24529345.9804
 98 10 31  0  0 19.0000000  0  8G31G 3G27G13G 2G19G18G10
  -2399845.95549  -1870007.38844  21517648.3784   21517650.8124
    203807.14749    158812.04144  22205487.1534   22205489.6364
  -2972227.47049  -2316017.86944  23363108.2894   23363112.9774
  -3389052.36849  -2640815.48244  23022467.2004   23022468.0434
  -1026070.73248   -799533.34644  25238213.0034   25238223.1094
  -1530585.10649  -1192662.84745  20818809.7634   20818812.2944
    557861.77049    434698.32045  20218802.7424   20218804.9244
  -1582785.94548  -1233335.35144  24529125.8794   24529131.9964
 98 10 31  0  0 20.0000000  0  8G31G 3G27G13G 2G19G18G10
  -2401739.44749  -1871482.82744  21517287.9474   21517290.5684
    204360.42049    159243.13344  22205592.4084   22205594.7504
  -2974931.60449  -2318124.98444  23362593.7444   23362598.1534
  -3392017.79849  -2643126.22044  23021902.7714   23021904.1954
  -1028972.96348   -801794.76344  25237661.2494   25237670.1294
  -1531881.18949  -1193672.78145  20818563.0444   20818565.5044
    558734.99449    435378.75745  20218968.9574   20218971.1434
  -1583923.17048  -1234221.38144  24528909.7604   24528916.4974
 98 10 31  0  0 21.0000000  0  8G31G 3G27G13G 2G19G18G10
  -2403632.34349  -1872957.81644  21516927.7074   21516930.0394
    204914.37549    159674.80744  22205697.7064   22205699.8744
  -2977635.66249  -2320232.01644  23362078.8344   23362083.9504
  -3394982.92849  -2645436.69944  23021338.5874   23021339.7974
  -1031875.03648   -804056.15744  25237109.0784   25237117.5804
  -1533176.98349  -1194682.48045  20818316.3924   20818318.9374
    559608.87549    436059.70145  20219135.2244   20219137.4054
  -1585059.77248  -1235106.98344  24528693.3854   24528701.5374
 98 10 31  0  0 22.0000000  0  8G31G 3G27G13G 2G19G18G10
  -2405524.65849  -1874432.33544  21516567.8274   21516570.2194
    205469.01549    160106.99444  22205803.0844   22205805.4564
  -2980339.65149  -2322339.02944  23361564.3554   23361568.9994
  -3397947.77549  -2647746.95644  23020774.2604   23020775.8204
  -1034776.97648   -806317.46244  25236557.3744   25236565.0934
  -1534472.48549  -1195691.97345  20818070.0794   20818072.5934
    560483.41849    436741.16245  20219301.5794   20219303.7624
  -1586195.71048  -1235992.24544  24528478.0144   24528482.9954
 98 10 31  0  0 23.0000000  0  8G31G 3G27G13G 2G19G18G10
  -2407416.48849  -1875906.49544  21516207.7374   21516210.0244
    206024.22749    160539.63444  22205908.5904   22205910.9344
  -2983043.67149  -2324445.99744  23361049.5034   23361054.2764
  -3400912.43949  -2650057.09344  23020209.9464   23020211.4974
  -1037678.86848   -808578.79244  25236004.4824   25236010.4984
  -1535767.79549  -1196701.29445  20817823.4304   20817825.9324
    561358.51549    437423.06345  20219468.2564   20219470.4504
  -1587331.13049  -1236876.85844  24528261.7544   24528265.5034
 98 10 31  0  0 24.0000000  0  8G31G 3G27G13G 2G19G18G10
  -2409307.78549  -1877380.22544  21515847.7724   21515850.0874
    206580.05649    160972.72344  22206014.1314   22206016.3164
  -2985747.68649  -2326553.06844  23360534.9584   23360539.6504
  -3403876.86349  -2652367.07044  23019645.8814   23019647.6174
  -1040580.68248   -810839.66644  25235452.5254   25235459.7614
  -1537062.88849  -1197710.46045  20817576.8924   20817579.3284
    562234.21549    438105.42246  20219634.7494   20219636.9174
  -1588465.95749  -1237761.42644  24528045.7084   24528051.2344
 98 10 31  0  0 25.0000000  0  8G31G 3G27G13G 2G19G18G10
  -2411198.72449  -1878853.68444  21515487.8224   21515490.1224
    207136.34849    161406.21544  22206120.2704   22206122.6094
  -2988451.84649  -2328660.16844  23360020.2034   23360025.1874
  -3406841.23249  -2654676.92244  23019081.4534   23019083.0464
  -1043482.56548   -813101.02844  25234900.5824   25234909.2284
  -1538357.91049  -1198719.56945  20817330.4534   20817332.8674
    563110.34649    438788.12645  20219801.4474   20219803.6204
  -1589600.35549  -1238645.17344  24527830.1784   24527832.8884
 98 10 31  0  0 26.0000000  0  8G31G 3G27G13G 2G19G18G10
  -2413089.27649  -1880326.83644  21515128.1724   21515130.4784
    207693.11149    161840.05344  22206225.7014   22206227.5844
  -2991156.15349  -2330767.46144  23359505.3074   23359510.4934
  -3409805.51049  -2656986.74744  23018517.3764   23018519.4284
  -1046384.51748   -815362.26944  25234348.9444   25234356.1004
  -1539652.86549  -1199728.62445  20817084.0164   20817086.5564
    563986.91449    439471.16345  20219968.1794   20219970.3474
  -1590734.32849  -1239529.06344  24527614.5544   24527618.1804
 98 10 31  0  0 27.0000000  0  8G31G 3G27G13G 2G19G18G10
  -2414979.33649  -1881799.61344  21514768.4684   21514770.7314
    208250.46249    162274.36844  22206332.2054   22206334.7464
  -2993860.48549  -2332874.69544  23358990.4704   23358995.2524
  -3412769.58149  -2659296.43944  23017953.3804   23017955.1324
  -1049286.41148   -817623.42544  25233796.8504   25233804.7974
  -1540947.62549  -1200737.52645  20816837.6284   20816840.0964
    564864.04049    440154.63845  20220135.0804   20220137.2124
  -1591867.76149  -1240412.20544  24527398.5894   24527402.4944
 98 10 31  0  0 28.0000000  0  8G31G 3G27G13G 2G19G18G10
  -2416868.81049  -1883271.92244  21514408.5974   21514410.7674
    208808.49949    162709.18144  22206438.6804   22206440.9224
  -2996564.72849  -2334981.92444  23358475.8834   23358481.1814
  -3415733.36049  -2661605.83844  23017389.4894   23017391.2404
  -1052188.15148   -819884.68244  25233244.3824   25233253.4044
  -1542242.08149  -1201746.18845  20816591.0744   20816593.5224
    565741.82049    440838.62745  20220302.1974   20220304.3564
  -1593000.53049  -1241294.70344  24527182.9114   24527185.3814
 98 10 31  0  0 29.0000000  0  8G31G 3G27G13G 2G19G18G10
  -2418757.64249  -1884743.73344  21514048.9994   21514051.2894
    209367.26549    163144.61044  22206545.1044   22206547.5604
  -2999268.83749  -2337088.98744  23357961.4584   23357966.8724
  -3418696.78549  -2663915.01144  23016825.5824   23016827.3644
  -1055089.67948   -822145.51044  25232692.5274   25232700.4854
  -1543536.19449  -1202754.58445  20816345.1014   20816347.5844
    566620.30849    441523.16445  20220469.4524   20220471.6394
  -1594132.60749  -1242176.74944  24526967.7704   24526967.4094
 98 10 31  0  0 30.0000000  0  8G31G 3G27G13G 2G19G18G10
  -2420646.21249  -1886215.35044  21513689.7334   21513691.9644
    209926.38549    163580.27844  22206651.6204   22206654.1234
  -3001973.19449  -2339196.34744  23357446.4824   23357452.0124
  -3421660.24349  -2666224.23144  23016261.4714   23016263.3044
  -1057991.39148   -824406.49744  25232139.2954   25232145.6854
  -1544830.34849  -1203763.01145  20816098.6984   20816101.1384
    567499.11349    442207.94745  20220636.7634   20220638.9314
  -1595264.37049  -1243058.69444  24526751.9884   24526752.7454
 98 10 31  0  0 31.0000000  0  8G31G 3G27G13G 2G19G18G10
  -2422534.51749  -1887686.75344  21513330.2134   21513332.4234
    210485.88349    164016.24044  22206758.0984   22206760.2664
  -3004677.77549  -2341303.75244  23356931.5744   23356936.9914
  -3424623.73849  -2668533.40044  23015697.8834   23015699.8044
  -1060893.26548   -826667.90344  25231585.8014   25231592.9934
  -1546124.52449  -1204771.46045  20815852.3734   20815854.8044
    568378.24849    442892.98645  20220804.1154   20220806.3054
  -1596395.78149  -1243940.43244  24526537.0104   24526538.7634
 98 10 31  0  0 32.0000000  0  8G31G13G27G 2G18G19G10G 3
  -2424421.49649  -1889157.12344  21512971.1384   21512973.2724
  -3427586.21049  -2670841.82044  23015134.2014   23015136.0014
  -3007381.54149  -2343410.58944  23356417.2184   23356422.4824
  -1063794.25548   -828928.00744  25231034.1314   25231039.4144
    569258.77649    443579.11045  20220971.6624   20220973.7614
  -1547417.66649  -1205779.10645  20815606.4374   20815608.7634
  -1597525.82149  -1244820.93644  24526322.0064   24526323.9884
    211046.79649    164453.33244  22206864.7414   22206867.0444
 98 10 31  0  0 33.0000000  0  8G31G 3G27G13G 2G19G18G10
  -2426307.59449  -1890626.80944  21512612.2984   21512614.3174
    211608.68149    164891.17044  22206971.4344   22206973.6064
  -3010084.93249  -2345517.10944  23355903.2074   23355908.4794
  -3430548.10149  -2673149.78044  23014570.6434   23014572.4554
  -1066694.80248   -831188.32744  25230481.8184   25230489.9304
  -1548710.22449  -1206786.29145  20815360.4544   20815362.7754
    570140.25349    444265.97845  20221139.5574   20221141.6964
  -1598654.90748  -1245700.70544  24526107.0694   24526108.5824
 98 10 31  0  0 34.0000000  0  8G31G 3G27G13G 2G19G18G10
  -2428193.18349  -1892096.10144  21512253.4484   21512255.6144
    212171.17849    165329.46344  22207078.5064   22207080.9164
  -3012788.29049  -2347623.61444  23355388.7624   23355394.1174
  -3433509.78449  -2675457.60744  23014006.7284   23014008.3114
  -1069595.28248   -833448.58044  25229930.5654   25229937.8484
  -1550002.56349  -1207793.30645  20815114.4444   20815116.7004
    571022.30649    444953.29045  20221307.5254   20221309.6594
  -1599783.39449  -1246580.08444  24525891.4354   24525893.9014
 98 10 31  0  0 35.0000000  0  8G31G 3G27G13G 2G19G18G10
  -2430078.29649  -1893565.01444  21511894.9924   21511896.9844
    212734.23949    165768.19644  22207185.3924   22207187.4614
  -3015491.68049  -2349730.12644  23354873.8214   23354879.3134
  -3436471.28949  -2677765.26844  23013443.3474   23013445.0944
  -1072495.72348   -835708.57144  25229379.0114   25229386.9074
  -1551294.73449  -1208800.19045  20814868.6164   20814870.8794
    571904.89349    445641.02445  20221475.3754   20221477.5194
  -1600911.35349  -1247458.93944  24525677.2404   24525681.7294
 98 10 31  0  0 36.0000000  0  8G31G 3G27G13G 2G19G18G10
  -2431962.71349  -1895033.38444  21511536.4744   21511538.5894
    213298.08049    166207.56644  22207292.7724   22207295.2414
  -3018194.87749  -2351836.52644  23354359.6364   23354365.3704
  -3439432.40649  -2680072.62544  23012879.8054   23012881.5304
  -1075395.91648   -837968.55444  25228827.1784   25228832.8154
  -1552586.52549  -1209806.78045  20814622.8974   20814625.1394
    572788.24049    446329.34445  20221643.4924   20221645.5994
  -1602038.55448  -1248337.41344  24525462.4764   24525463.6664
 98 10 31  0  0 37.0000000  0  8G31G 3G27G13G 2G19G18G10
  -2433846.73249  -1896501.46644  21511178.1464   21511180.2334
    213862.41249    166647.32144  22207400.5544   22207403.0084
  -3020898.15849  -2353942.98544  23353845.1794   23353850.8194
  -3442393.42349  -2682379.91844  23012316.2674   23012318.1164
  -1078296.14648   -840228.43344  25228275.2184   25228282.4364
  -1553878.21149  -1210813.28345  20814377.0254   20814379.1964
    573672.05249    447018.02845  20221811.7134   20221813.8984
  -1603165.26448  -1249215.23844  24525247.2114   24525251.2294
 98 10 31  0  0 38.0000000  0  8G31G 3G27G13G 2G19G18G10
  -2435730.32849  -1897969.19544  21510819.8574   21510821.8004
    214427.24949    167087.44344  22207507.9544   22207510.2874
  -3023601.52449  -2356049.52644  23353331.0114   23353336.2044
  -3445354.31549  -2684687.12144  23011752.8864   23011754.4414
  -1081196.38848   -842488.47944  25227723.7924   25227729.1264
  -1555169.77549  -1211819.69945  20814131.2784   20814133.4814
    574556.35249    447707.09345  20221979.9684   20221982.0654
  -1604291.50748  -1250092.86544  24525033.2424   24525034.4304
 98 10 31  0  0 39.0000000  0  8G31G 3G27G13G 2G19G18G10
  -2437613.45649  -1899436.55644  21510461.5154   21510463.5134
    214992.63349    167528.01344  22207615.7644   22207618.2024
  -3026304.92749  -2358156.04344  23352816.9154   23352821.7384
  -3448315.04449  -2686994.15544  23011189.7944   23011191.4704
  -1084096.60548   -844748.18744  25227172.0714   25227177.0684
  -1556461.18249  -1212825.98745  20813885.2264   20813887.3604
    575441.17949    448396.56945  20222148.2994   20222150.3734
  -1605417.21648  -1250969.92444  24524818.8924   24524823.6244
 98 10 31  0  0 40.0000000  0  8G31G 3G27G13G 2G19G18G10
  -2439496.11749  -1900903.56744  21510103.1814   21510105.1494
    215558.58049    167969.01244  22207723.6134   22207725.9744
  -3029008.35749  -2360262.58044  23352302.4884   23352308.1374
  -3451275.60449  -2689301.08344  23010626.2914   23010627.9894
  -1086996.77248   -847008.09544  25226620.6914   25226627.6704
  -1557752.42849  -1213832.14945  20813639.5454   20813641.6804
    576326.54249    449086.46346  20222316.7164   20222318.7654
  -1606542.39848  -1251846.93944  24524604.5494   24524607.6054
 98 10 31  0  0 41.0000000  0  8G31G 3G27G13G 2G19G18G10
  -2441378.31949  -1902370.22844  21509744.7604   21509746.6814
    216125.06349    168410.41844  22207831.4534   22207833.9054
  -3031711.84949  -2362369.21844  23351788.2274   23351793.2574
  -3454236.00849  -2691607.89444  23010063.0254   23010064.7524
  -1089896.92548   -849267.94444  25226068.6274   25226074.1004
  -1559043.52349  -1214838.20145  20813393.9414   20813396.0214
    577212.42949    449776.76645  20222485.1584   20222487.1524
  -1607667.07148  -1252723.10944  24524390.7414   24524392.8104
 98 10 31  0  0 42.0000000  0  8G31G 3G27G13G 2G19G18G10
  -2443260.21549  -1903836.63244  21509386.6624   21509388.6834
    216691.94549    168852.15044  22207939.1614   22207941.3164
  -3034415.54349  -2364475.98944  23351274.0484   23351279.7494
  -3457196.39949  -2693914.72044  23009500.0104   23009501.4964
  -1092797.19348   -851527.92344  25225516.2664   25225522.8374
  -1560334.60249  -1215844.23545  20813148.0804   20813150.2054
    578098.70449    450467.37245  20222653.7974   20222655.8294
  -1608791.38948  -1253599.22244  24524176.0934   24524177.5594
 98 10 31  0  0 43.0000000  0  8G31G 3G27G13G 2G19G18G10
  -2445141.59049  -1905302.63944  21509028.7684   21509030.8664
    217259.43949    169294.36544  22208047.1974   22208049.6904
  -3037119.20449  -2366582.72744  23350759.8594   23350765.6704
  -3460156.55149  -2696221.27644  23008936.5694   23008937.8634
  -1095697.37248   -853787.86144  25224964.5204   25224970.7634
  -1561625.46749  -1216850.10245  20812902.5874   20812904.7554
    578985.57749    451158.44245  20222822.5764   20222824.5874
  -1609915.11348  -1254474.83144  24523961.6514   24523966.2234
 98 10 31  0  0 44.0000000  0  8G31G 3G27G13G 2G19G18G10
  -2447022.19349  -1906768.02944  21508670.7614   21508672.8124
    217827.79249    169737.22644  22208155.1384   22208157.5124
  -3039822.60749  -2368689.28944  23350245.4854   23350251.2704
  -3463116.21949  -2698527.51044  23008373.5654   23008375.1844
  -1098597.20848   -856047.46544  25224412.7184   25224419.1494
  -1562915.87049  -1217855.60845  20812657.0784   20812659.1504
    579873.30249    451850.17545  20222991.6064   20222993.5744
  -1611038.02748  -1255350.03744  24523747.1694   24523749.4234
 98 10 31  0  0 45.0000000  0  8G31G 3G27G13G 2G19G18G10
  -2448902.17949  -1908232.95544  21508313.0134   21508315.0944
    218396.84549    170180.63344  22208263.4884   22208265.9654
  -3042525.91149  -2370795.74044  23349731.0444   23349736.1694
  -3466075.56349  -2700833.50144  23007810.4664   23007812.0164
  -1101496.86448   -858306.90644  25223861.5414   25223867.4054
  -1564205.96249  -1218860.87945  20812411.4694   20812413.6544
    580761.72649    452542.45345  20223160.6294   20223162.6314
  -1612160.27348  -1256224.26944  24523533.6734   24523534.2934
 98 10 31  0  0 46.0000000  0  8G31G 3G27G13G 2G19G18G10
  -2450781.72949  -1909697.55144  21507955.3264   21507957.4634
    218966.43649    170624.49444  22208371.9434   22208374.2804
  -3045229.26949  -2372902.24144  23349216.6634   23349221.9984
  -3469034.76149  -2703139.38444  23007247.5274   23007249.2694
  -1104396.51448   -860566.45544  25223308.5784   25223314.9884
  -1565495.91949  -1219866.03845  20812166.0744   20812168.1694
    581650.67049    453235.13645  20223329.8484   20223331.8294
  -1613282.04248  -1257098.35344  24523320.5294   24523322.0504
 98 10 31  0  0 47.0000000  0  8G31G 3G27G13G 2G19G18G10
  -2452660.89749  -1911161.83244  21507597.5374   21507599.5054
    219536.48749    171068.67644  22208480.3744   22208482.9364
  -3047932.76049  -2375008.88144  23348702.1024   23348707.6044
  -3471993.86949  -2705445.15244  23006684.3014   23006685.9224
  -1107296.22948   -862825.91344  25222757.5464   25222762.4184
  -1566785.79449  -1220871.13245  20811920.6964   20811922.6784
    582540.06949    453928.17145  20223499.1434   20223501.0974
  -1614403.38548  -1257972.12544  24523107.6154   24523110.4514
 98 10 31  0  0 48.0000000  0  8G31G 3G27G13G 2G19G18G10
  -2454539.52049  -1912625.68944  21507239.7914   21507241.6474
    220107.17049    171513.37744  22208588.9374   22208591.2734
  -3050636.20749  -2377115.41244  23348187.4534   23348192.7424
  -3474952.71849  -2707750.77744  23006121.4244   23006123.2044
  -1110195.82748   -865085.10044  25222205.4134   25222212.2594
  -1568075.41849  -1221876.02445  20811675.4074   20811677.4164
    583430.09849    454621.70145  20223668.6114   20223670.5324
  -1615524.15848  -1258845.42444  24522893.6584   24522897.7994
 98 10 31  0  0 49.0000000  0  8G31G 3G27G13G 2G19G18G10
  -2456417.78349  -1914089.25144  21506882.6324   21506884.5354
    220678.30549    171958.41844  22208697.3914   22208699.7614
  -3053339.78249  -2379222.10444  23347673.0084   23347678.0714
  -3477911.51249  -2710056.34644  23005558.1344   23005559.7014
  -1113095.48748   -867344.74344  25221653.5794   25221659.3684
  -1569364.97849  -1222880.87645  20811429.8474   20811431.9574
    584320.57749    455315.58645  20223838.0334   20223839.9164
  -1616644.51048  -1259718.51944  24522680.5294   24522681.4104
 98 10 31  0  0 50.0000000  0  8G31G 3G27G13G 2G19G18G10
  -2458295.58649  -1915552.47544  21506525.3024   21506527.3184
    221249.98549    172403.87844  22208806.1194   22208808.3574
  -3056043.39449  -2381328.83544  23347158.3644   23347163.5174
  -3480870.13049  -2712361.74444  23004995.3374   23004996.7674
  -1115995.11648   -869604.05244  25221102.1744   25221106.3934
  -1570654.38749  -1223885.61245  20811184.5754   20811186.6384
    585211.59849    456009.88945  20224007.6644   20224009.5504
  -1617764.37848  -1260591.10044  24522467.0944   24522471.2004
 98 10 31  0  0 51.0000000  0  8G31G 3G27G13G 2G19G18G10
  -2460172.84649  -1917015.27444  21506168.0994   21506170.1164
    221822.29149    172849.84444  22208914.6624   22208917.1514
  -3058746.95749  -2383435.49244  23346643.9854   23346649.0724
  -3483828.50149  -2714666.96544  23004432.4764   23004433.6004
  -1118894.64348   -871863.56344  25220549.8724   25220554.2634
  -1571943.56249  -1224890.16145  20810939.3954   20810941.4024
    586103.24249    456704.67445  20224177.3114   20224179.1954
  -1618883.66748  -1261463.37744  24522254.1564   24522253.2044
 98 10 31  0  0 52.0000000  0  8G31G 3G27G13G 2G19G18G10
  -2462048.46349  -1918476.80744  21505811.0614   21505812.9814
    222396.35349    173297.12844  22209024.0554   22209026.4684
  -3061449.34949  -2385541.27744  23346129.7444   23346134.6704
  -3486785.49649  -2716971.08644  23003869.6064   23003871.0054
  -1121792.92048   -874122.15244  25219997.6674   25220004.0284
  -1573231.36749  -1225893.63845  20810694.2824   20810696.2364
    586996.63049    457400.81745  20224347.3794   20224349.2584
  -1620001.23448  -1262334.51544  24522041.0354   24522045.1224
 98 10 31  0  0 53.0000000  0  8G31G 3G27G13G 2G19G18G10
  -2463922.99049  -1919937.47244  21505454.6384   21505456.6414
    222971.59749    173745.39044  22209133.6394   22209136.2244
  -3064151.15049  -2387646.54244  23345615.1724   23345619.9564
  -3489741.69349  -2719274.61544  23003306.7924   23003307.9364
  -1124690.53748   -876380.04944  25219446.3564   25219451.5004
  -1574518.40849  -1226896.53545  20810449.2994   20810451.3534
    587891.19249    458097.88045  20224517.7104   20224519.5214
  -1621117.67448  -1263204.09344  24521829.4464   24521833.9654
 98 10 31  0  0 54.0000000  0  8G31G 3G27G13G 2G19G18G10
  -2465796.85549  -1921397.62444  21505098.1154   21505100.2254
    223547.58649    174194.22144  22209243.1764   22209245.4884
  -3066852.79149  -2389751.70944  23345101.3294   23345106.1644
  -3492697.52049  -2721577.87044  23002744.3844   23002745.4164
  -1127587.91748   -878637.55344  25218895.4074   25218901.6174
  -1575805.10749  -1227899.15345  20810204.4984   20810206.5304
    588786.49549    458795.52045  20224687.9424   20224689.7704
  -1622233.42048  -1264073.52944  24521617.4224   24521619.9454
 98 10 31  0  0 55.0000000  0  8G31G 3G27G13G 2G19G18G10
  -2467670.08749  -1922857.27644  21504741.9574   21504744.0174
    224124.31149    174643.61744  22209352.8844   22209355.3464
  -3069554.27249  -2391856.76244  23344587.1854   23344591.4734
  -3495653.00149  -2723880.85344  23002182.0604   23002183.0244
  -1130485.07748   -880895.13044  25218344.4024   25218350.3484
  -1577091.48249  -1228901.52545  20809959.7394   20809961.7864
    589682.54449    459493.73745  20224858.2924   20224860.1244
  -1623348.45748  -1264942.27244  24521405.2884   24521406.6044
 98 10 31  0  0 56.0000000  0  8G31G 3G27G13G 2G19G18G10
  -2469542.75949  -1924316.49944  21504385.6204   21504387.7314
    224701.68149    175093.50644  22209462.5744   22209464.9164
  -3072255.69749  -2393961.76244  23344073.2394   23344078.4604
  -3498608.22249  -2726183.63644  23001619.6314   23001620.2264
  -1133382.10548   -883152.46644  25217792.9674   25217798.0294
  -1578377.60549  -1229903.70045  20809715.0654   20809717.1054
    590579.22849    460192.45745  20225028.9714   20225030.7704
  -1624462.90548  -1265810.82044  24521193.5034   24521194.4174
 98 10 31  0  0 57.0000000  0  8G31G 3G27G13G 2G19G18G10
  -2471414.93549  -1925775.35344  21504029.4704   21504031.6274
    225279.63349    175543.86644  22209572.7344   22209574.9424
  -3074957.12349  -2396066.74444  23343558.7464   23343563.1314
  -3501563.24649  -2728486.24444  23001057.2484   23001058.1774
  -1136279.05448   -885409.89244  25217242.1894   25217246.7434
  -1579663.53949  -1230905.71645  20809470.3314   20809472.3364
    591476.49049    460891.61845  20225199.5234   20225201.3034
  -1625576.82048  -1266678.78944  24520982.0994   24520984.2934
 98 10 31  0  0 58.0000000  0  8G31G 3G27G13G 2G19G18G10
  -2473286.73849  -1927233.88444  21503673.2054   21503675.2194
    225858.06949    175994.61844  22209682.8554   22209684.9964
  -3077658.66349  -2398171.84144  23343044.8504   23343049.5534
  -3504518.19849  -2730788.73544  23000495.1244   23000496.3994
  -1139176.05148   -887667.08744  25216690.4764   25216695.7584
  -1580949.41349  -1231907.69445  20809225.5644   20809227.5554
    592374.21249    461591.14545  20225370.5574   20225372.3214
  -1626690.30648  -1267546.38744  24520769.4794   24520771.0294
 98 10 31  0  0 59.0000000  0  8G31G27G13G 2G19G18G10G 3
  -2475158.03349  -1928692.03344  21503317.1384   21503319.2774
  -3080360.19949  -2400276.94844  23342531.0084   23342535.8164
  -3507472.94749  -2733091.16544  22999932.7434   22999933.5234
  -1142072.98448   -889924.55244  25216139.5804   25216145.2924
  -1582235.09549  -1232909.52445  20808980.9264   20808982.8774
    593272.51149    462291.11645  20225541.2824   20225543.0144
  -1627803.27948  -1268413.70744  24520558.8964   24520562.2084
    226437.08749    176445.78544  22209793.1064   22209795.4164
 98 10 31  0  1  0.0000000  0  8G31G 3G27G13G 2G19G18G10
  -2477028.87549  -1930149.83244  21502961.0344   21502963.1674
    227016.64049    176897.38244  22209903.6264   22209905.8044
  -3083061.79049  -2402382.11344  23342017.0004   23342021.7654
  -3510427.55349  -2735393.44944  22999370.3564   22999371.0384
  -1144969.89948   -892181.87244  25215587.9234   25215593.5864
  -1583520.64049  -1233911.24045  20808736.3184   20808738.2984
    594171.33949    462991.50345  20225712.4304   20225714.1644
  -1628915.76548  -1269280.57244  24520347.4934   24520351.9764
 98 10 31  0  1  1.0000000  0  8G31G 3G27G13G 2G19G18G10
  -2478899.13349  -1931607.18144  21502604.9184   21502607.0444
    227596.87349    177349.49844  22210013.7834   22210016.2704
  -3085763.27349  -2404487.12644  23341502.9594   23341507.6634
  -3513381.88549  -2737695.51344  22998808.2704   22998809.3964
  -1147866.65048   -894439.07544  25215036.3714   25215041.4274
  -1584805.89249  -1234912.74245  20808491.6974   20808493.6554
    595070.84649    463692.41945  20225883.6324   20225885.3424
  -1630027.63948  -1270147.05444  24520135.3574   24520138.4304
 98 10 31  0  1  2.0000000  0  8G31G 3G27G13G 2G19G18G10
  -2480768.84149  -1933064.09344  21502249.0634   21502251.1824
    228177.73349    177802.14644  22210124.2234   22210126.6224
  -3088464.71749  -2406592.13144  23340988.8224   23340993.7964
  -3516335.97249  -2739997.38744  22998245.9974   22998247.0244
  -1150763.29348   -896696.13144  25214485.0974   25214491.2754
  -1586090.90049  -1235914.04545  20808247.2864   20808249.2264
    595970.98049    464393.82545  20226054.8104   20226056.5644
  -1631138.94548  -1271012.90944  24519924.2594   24519927.6114
 98 10 31  0  1  3.0000000  0  8G31G 3G27G13G 2G19G18G10
  -2482638.15249  -1934520.69144  21501893.3274   21501895.4414
    228759.07949    178255.13344  22210235.0124   22210237.4624
  -3091166.26449  -2408697.25944  23340475.0434   23340479.4134
  -3519289.97549  -2742299.24344  22997684.0974   22997685.0544
  -1153659.96148   -898952.86644  25213933.6844   25213940.3744
  -1587375.81549  -1236915.27145  20808002.6354   20808004.6674
    596871.58849    465095.59445  20226226.1004   20226227.8194
  -1632249.83648  -1271878.44944  24519712.5414   24519715.3464
 98 10 31  0  1  4.0000000  0  8G31G 3G27G13G 2G19G18G10
  -2484507.06149  -1935976.98644  21501537.6604   21501539.7644
    229340.92349    178708.51044  22210346.0624   22210348.4674
  -3093867.89249  -2410802.44044  23339961.5984   23339966.1714
  -3522243.87649  -2744600.98944  22997121.3434   22997122.6674
  -1156556.64148   -901210.41844  25213382.6694   25213387.1394
  -1588660.62449  -1237916.42845  20807758.1354   20807760.1154
    597772.69249    465797.75145  20226397.5164   20226399.2464
  -1633360.30648  -1272743.83844  24519501.2234   24519504.9714
 98 10 31  0  1  5.0000000  0  8G31G 3G27G13G 2G19G18G10
  -2486375.38849  -1937432.81944  21501182.3104   21501184.5434
    229923.43249    179162.41544  22210456.7844   22210459.3674
  -3096569.45449  -2412907.53044  23339447.0724   23339451.9574
  -3525197.50049  -2746902.50944  22996559.5314   22996560.4164
  -1159453.17848   -903467.55244  25212830.8834   25212837.7764
  -1589945.15249  -1238917.34945  20807513.7344   20807515.6644
    598674.45849    466500.42646  20226569.0614   20226570.7614
  -1634470.19048  -1273608.58044  24519290.6244   24519294.8294
 98 10 31  0  1  6.0000000  0  8G31G 3G27G13G 2G19G18G10
  -2488243.26149  -1938888.30444  21500826.8864   21500829.0524
    230506.46949    179616.73644  22210567.6734   22210569.8364
  -3099271.08449  -2415012.71944  23338932.8094   23338937.3864
  -3528150.97649  -2749203.90044  22995997.3924   22995998.5124
  -1162349.69648   -905724.63244  25212280.1744   25212287.1464
  -1591229.53249  -1239918.16845  20807269.3924   20807271.2594
    599576.75049    467203.51045  20226740.7984   20226742.4884
  -1635579.61148  -1274473.07044  24519079.4714   24519084.4854
 98 10 31  0  1  7.0000000  0  8G31G 3G27G13G 2G19G18G10
  -2490110.78349  -1940343.52144  21500471.3734   21500473.4714
    231089.95449    180071.41644  22210678.4954   22210681.0154
  -3101972.86049  -2417118.00244  23338418.7154   23338423.2984
  -3531104.41449  -2751505.26744  22995435.2714   22995436.5204
  -1165246.27448   -907981.61544  25211729.4524   25211737.2034
  -1592513.84249  -1240918.92245  20807025.0454   20807026.9354
    600479.48649    467906.94445  20226912.7394   20226914.4464
  -1636688.65548  -1275337.41044  24518868.2074   24518873.1794
 98 10 31  0  1  8.0000000  0  8G31G 3G27G13G 2G19G18G10
  -2491977.87049  -1941798.39144  21500115.8034   21500117.9494
    231673.95449    180526.47744  22210789.3294   22210791.9484
  -3104674.72549  -2419223.34044  23337904.6874   23337908.8884
  -3534057.71549  -2753806.53444  22994873.2374   22994874.6714
  -1168142.85448   -910238.64644  25211177.8924   25211185.6494
  -1593798.02549  -1241919.58745  20806780.7464   20806782.7134
    601382.73649    468610.78045  20227084.7554   20227086.4454
  -1637797.25248  -1276201.25044  24518656.6564   24518660.4834
 98 10 31  0  1  9.0000000  0  8G31G 3G27G13G 2G19G18G10
  -2493844.48049  -1943252.88044  21499760.4334   21499762.6544
    232258.52449    180981.97044  22210900.0854   22210902.3764
  -3107376.62649  -2421328.65744  23337390.7264   23337394.8924
  -3537010.83949  -2756107.67344  22994311.3664   22994312.6024
  -1171039.37548   -912495.67244  25210626.7114   25210634.0544
  -1595082.02149  -1242920.10045  20806536.3774   20806538.3564
    602286.54749    469315.04945  20227256.8354   20227258.5154
  -1638905.38249  -1277064.53744  24518446.7974   24518449.8434
 98 10 31  0  1 10.0000000  0  8G31G 3G27G13G 2G19G18G10
  -2495710.62949  -1944707.03044  21499405.2474   21499407.2604
    232843.66149    181437.92644  22211011.3524   22211013.8964
  -3110078.56949  -2423434.08444  23336876.3344   23336880.2894
  -3539963.79449  -2758408.68444  22993749.3134   22993750.5514
  -1173935.84748   -914752.68244  25210075.5984   25210083.0344
  -1596365.84949  -1243920.48445  20806292.2344   20806294.1744
    603190.91549    470019.75145  20227428.8714   20227430.5964
  -1640013.00649  -1277927.72844  24518236.1824   24518240.2394
 98 10 31  0  1 11.0000000  0  8G31G 3G27G13G 2G19G18G10
  -2497576.22549  -1946160.73744  21499050.0184   21499052.2144
    233429.44049    181894.37944  22211122.9944   22211125.4384
  -3112780.46749  -2425539.41544  23336362.1954   23336366.2594
  -3542916.48949  -2760709.46944  22993187.7744   22993189.0544
  -1176832.18948   -917009.69044  25209524.6534   25209534.2814
  -1597649.43349  -1244920.67845  20806048.0504   20806049.8774
    604095.92649    470724.95045  20227601.1954   20227602.8894
  -1641120.07649  -1278790.45444  24518025.4554   24518029.6894
 98 10 31  0  1 12.0000000  0  8G31G 3G27G13G 2G19G18G10
  -2499440.45449  -1947613.38444  21498695.3334   21498697.3654
    234016.67449    182351.96744  22211234.5594   22211237.4364
  -3115481.51449  -2427644.17144  23335848.1104   23335852.4594
  -3545868.12449  -2763009.45844  22992625.8774   22992627.0054
  -1179727.59348   -919265.74544  25208973.6844   25208981.3884
  -1598931.94649  -1245920.03245  20805803.6854   20805805.5214
    605002.39349    471431.29845  20227773.5734   20227775.2754
  -1642225.76749  -1279651.85544  24517816.0604   24517819.6934
 98 10 31  0  1 13.0000000  0  8G31G 3G27G13G 2G19G18G10
  -2501303.61549  -1949065.19344  21498341.0774   21498343.2364
    234605.09549    182810.45744  22211346.8104   22211349.4684
  -3118181.98849  -2429748.40644  23335333.9414   23335338.3104
  -3548819.00249  -2765308.82644  22992064.4344   22992065.6324
  -1182622.35048   -921521.34844  25208423.4534   25208433.4344
  -1600213.68649  -1246918.78745  20805559.7954   20805561.6354
    605910.02049    472138.52945  20227946.3384   20227948.0944
  -1643330.36249  -1280512.65244  24517605.0254   24517607.3024
 98 10 31  0  1 14.0000000  0  8G31G 3G27G13G 2G19G18G10
  -2503165.95949  -1950516.36944  21497986.7394   21497988.8994
    235194.42249    183269.69044  22211458.7044   22211461.6274
  -3120882.16149  -2431852.44344  23334820.1954   23334824.2154
  -3551769.35249  -2767607.78244  22991502.9344   22991504.3244
  -1185516.72048   -923776.78644  25207871.9814   25207883.2984
  -1601494.92249  -1247917.16345  20805316.0574   20805317.8564
    606818.54249    472846.47045  20228119.2404   20228120.9794
  -1644434.13249  -1281372.69344  24517394.8784   24517398.3304
 98 10 31  0  1 15.0000000  0  8G27G13G 2G19G31G18G10G 3
  -3123582.25249  -2433956.40444  23334306.3224   23334310.2204
  -3554719.41449  -2769906.54844  22990941.4024   22990942.6424
  -1188410.92948   -926031.96844  25207321.0154   25207331.3114
  -1602775.86949  -1248915.29645  20805072.2744   20805074.0464
  -2505027.70349  -1951967.07544  21497632.4764   21497634.5174
    607727.74049    473554.93345  20228292.1834   20228293.9484
  -1645537.28349  -1282232.19844  24517184.4084   24517188.6354
    235784.44049    183729.43444  22211571.3104   22211574.3904
 98 10 31  0  1 16.0000000  0  8G31G 3G27G13G 2G19G18G10
  -2506889.04049  -1953417.45944  21497278.3144   21497280.4754
    236374.96649    184189.60144  22211683.4104   22211686.4824
  -3126282.44849  -2436060.45544  23333792.0804   23333795.8814
  -3557669.37049  -2772205.19244  22990380.5104   22990381.9194
  -1191305.13648   -928287.26344  25206770.4024   25206780.7354
  -1604056.69949  -1249913.33945  20804828.5214   20804830.3624
    608637.44149    474263.79645  20228465.1764   20228466.8894
  -1646640.01749  -1283091.45744  24516975.6204   24516980.5934
 98 10 31  0  1 17.0000000  0  8G31G 3G27G13G 2G19G18G10
  -2508749.85549  -1954867.44544  21496924.1874   21496926.3224
    236966.10449    184650.22844  22211796.1534   22211798.8664
  -3128982.65049  -2438164.49644  23333278.6404   23333282.6334
  -3560619.09649  -2774503.69644  22989819.2804   22989820.9104
  -1194199.25948   -930542.27744  25206219.2464   25206229.6454
  -1605337.32149  -1250911.23145  20804584.9544   20804586.7414
    609547.73849    474973.12245  20228638.5084   20228640.2894
  -1647742.22249  -1283950.50444  24516765.1184   24516771.0464
 98 10 31  0  1 18.0000000  0  8G31G 3G27G13G 2G19G18G10
  -2510610.12749  -1956317.01044  21496570.1124   21496572.1924
    237557.88049    185111.36344  22211908.7224   22211911.8644
  -3131682.82749  -2440268.54144  23332764.7014   23332768.6174
  -3563568.58049  -2776801.95744  22989257.9504   22989259.6554
  -1197093.25848   -932797.42744  25205668.6654   25205676.6854
  -1606617.71649  -1251908.94045  20804341.3174   20804343.1614
    610458.65849    475682.92545  20228811.8524   20228813.5994
  -1648843.89249  -1284809.09544  24516555.8284   24516561.4024
 98 10 31  0  1 19.0000000  0  8G31G 3G27G13G 2G19G18G10
  -2512469.83649  -1957766.13544  21496216.4064   21496218.6274
    238150.32849    185573.01344  22212021.4114   22212024.5344
  -3134382.95349  -2442372.51844  23332250.7814   23332254.6434
  -3566517.79349  -2779100.08844  22988696.6454   22988698.6104
  -1199987.11348   -935052.40544  25205118.1414   25205127.8454
  -1607897.86649  -1252906.45645  20804097.7584   20804099.5764
    611370.23449    476393.24245  20228985.1934   20228986.9324
  -1649944.98749  -1285666.92044  24516346.4574   24516352.9144
 98 10 31  0  1 20.0000000  0  8G31G 3G27G13G 2G19G18G10
  -2514329.16749  -1959214.95244  21495862.5574   21495864.7614
    238743.24349    186035.00544  22212134.3194   22212137.3174
  -3137083.22049  -2444476.60944  23331737.1524   23331741.2954
  -3569466.91349  -2781398.08844  22988135.5514   22988137.5264
  -1202881.01548   -937307.31544  25204567.4684   25204576.1934
  -1609177.95449  -1253903.92945  20803854.1644   20803855.9214
    612282.27249    477103.92545  20229158.8174   20229160.5694
  -1651045.70749  -1286524.62344  24516137.1054   24516140.7924
 98 10 31  0  1 21.0000000  0  8G31G 3G27G13G 2G19G18G10
  -2516188.10949  -1960663.49344  21495508.8834   21495511.0774
    239336.63349    186497.39644  22212246.7704   22212249.5674
  -3139783.61849  -2446580.78344  23331223.4354   23331227.3114
  -3572415.93249  -2783696.03244  22987574.6044   22987576.6084
  -1205774.94648   -939562.28444  25204016.3864   25204027.1514
  -1610457.96749  -1254901.33345  20803610.5614   20803612.3534
    613194.78949    477814.97545  20229332.3044   20229334.0894
  -1652146.02149  -1287381.95444  24515927.8144   24515934.2444
 98 10 31  0  1 22.0000000  0  8G31G 3G27G13G 2G19G18G10
  -2518046.27949  -1962111.40744  21495155.0694   21495157.3184
    239930.90649    186960.47644  22212360.0054   22212363.0394
  -3142483.73049  -2448684.78644  23330709.6644   23330713.4894
  -3575364.44849  -2785993.55344  22987013.2334   22987015.2524
  -1208668.50048   -941817.13444  25203465.4264   25203476.5254
  -1611737.52049  -1255898.38945  20803367.1264   20803368.8664
    614108.18549    478526.71545  20229506.2044   20229508.0044
  -1653245.56449  -1288238.72544  24515718.6044   24515724.6654
 98 10 31  0  1 23.0000000  0  8G31G 3G27G13G 2G19G18G10
  -2519903.88649  -1963558.88444  21494801.5124   21494803.7814
    240525.83449    187424.04144  22212473.2074   22212476.0834
  -3145183.79749  -2450788.74444  23330195.8804   23330199.9354
  -3578312.69249  -2788290.87144  22986452.6144   22986454.4364
  -1211561.91848   -944071.62844  25202915.0094   25202925.5704
  -1613016.84049  -1256895.26745  20803123.6564   20803125.3814
    615022.22549    479238.95545  20229680.2604   20229682.0354
  -1654344.53549  -1289095.15444  24515509.6704   24515513.7884
 98 10 31  0  1 24.0000000  0  8G31G 3G27G13G 2G19G18G10
  -2521761.15449  -1965006.10444  21494447.8524   21494450.1664
    241121.18049    187887.96644  22212586.5544   22212589.4734
  -3147884.04949  -2452892.80844  23329682.2664   23329686.0904
  -3581260.89149  -2790588.16744  22985891.2774   22985893.4514
  -1214455.42348   -946326.43944  25202365.0784   25202375.3364
  -1614296.15249  -1257892.12645  20802880.0614   20802881.7884
    615936.68449    479951.52345  20229854.4124   20229856.2254
  -1655443.16349  -1289951.02244  24515301.0484   24515304.5644
 98 10 31  0  1 25.0000000  0  8G31G 3G27G13G 2G19G18G10
  -2523617.88849  -1966452.91544  21494094.5094   21494096.7994
    241717.17749    188352.38044  22212699.8494   22212703.0504
  -3150584.25849  -2454996.88944  23329168.0334   23329171.8104
  -3584208.83949  -2792885.26444  22985330.6194   22985332.5314
  -1217348.79748   -948580.97644  25201813.8904   25201823.6494
  -1615575.26649  -1258888.84445  20802636.7054   20802638.4054
    616851.77449    480664.58045  20230028.5664   20230030.3664
  -1656541.24649  -1290807.22144  24515091.1524   24515095.5744
 98 10 31  0  1 26.0000000  0  8G31G 3G27G13G 2G19G18G10
  -2525474.10249  -1967899.32244  21493740.9954   21493743.2184
    242313.79249    188817.25644  22212813.5334   22212816.2924
  -3153284.45549  -2457100.98844  23328654.5124   23328658.4114
  -3587156.54749  -2795182.20944  22984769.7414   22984771.8914
  -1220242.07648   -950835.37744  25201262.7534   25201272.8314
  -1616854.18549  -1259885.39945  20802393.3924   20802395.0574
    617767.45949    481378.09745  20230202.8624   20230204.7034
  -1657638.79849  -1291662.06544  24514882.9354   24514887.7584
 98 10 31  0  1 27.0000000  0  8G31G 3G27G13G 2G19G18G10
  -2527329.93549  -1969345.41244  21493387.9604   21493390.1594
    242910.88849    189282.53044  22212927.3014   22212930.6164
  -3155984.78849  -2459205.08444  23328140.6824   23328144.5284
  -3590104.15749  -2797479.04244  22984208.5434   22984210.3994
  -1223135.40248   -953090.05344  25200712.8204   25200723.1034
  -1618133.04249  -1260881.90645  20802150.0944   20802151.8004
    618683.59749    482091.96945  20230377.2474   20230379.0834
  -1658735.96749  -1292516.89144  24514674.2154   24514679.5674
 98 10 31  0  1 28.0000000  0  8G31G 3G27G13G 2G19G18G10
  -2529185.35749  -1970791.18744  21493034.7754   21493036.9874
    243508.52949    189748.22644  22213041.1854   22213044.0314
  -3158685.19149  -2461309.25844  23327627.0064   23327630.9844
  -3593051.61649  -2799775.73444  22983647.6384   22983649.5944
  -1226028.69248   -955344.73244  25200162.8194   25200175.9314
  -1619411.80449  -1261878.34445  20801906.7284   20801908.3524
    619600.24649    482806.24445  20230551.5324   20230553.3764
  -1659832.71749  -1293371.52244  24514465.8824   24514471.0994
 98 10 31  0  1 29.0000000  0  8G31G 3G27G13G 2G19G18G10
  -2531040.27349  -1972236.58344  21492682.2754   21492684.5104
    244106.77549    190214.40644  22213155.0114   22213158.3054
  -3161385.59849  -2463413.52544  23327113.0584   23327116.5474
  -3595998.85249  -2802072.29944  22983086.7974   22983088.7884
  -1228921.89548   -957598.91144  25199612.2304   25199622.0704
  -1620690.38149  -1262874.63245  20801663.4664   20801665.1144
    620517.48549    483520.97745  20230726.1494   20230728.0364
  -1660928.96549  -1294225.85844  24514256.6324   24514262.1714
 98 10 31  0  1 30.0000000  0  8G31G 3G27G13G 2G19G18G10
  -2532894.78949  -1973681.66244  21492329.1514   21492331.4974
    244705.52849    190680.96344  22213268.8294   22213272.0704
  -3164086.11349  -2465517.84044  23326599.1554   23326602.7884
  -3598945.97049  -2804368.73144  22982526.0464   22982528.0554
  -1231815.11148   -959853.37544  25199061.7834   25199072.5624
  -1621968.87249  -1263870.86345  20801420.3814   20801421.9634
    621435.20249    484236.08045  20230900.5804   20230902.4304
  -1662024.80049  -1295079.59144  24514047.8264   24514055.3904
 98 10 31  0  1 31.0000000  0  8G31G 3G27G13G 2G19G18G10
  -2534748.71649  -1975126.27644  21491976.4684   21491978.7134
    245304.99949    191148.08144  22213383.4584   22213386.5004
  -3166786.51949  -2467622.02044  23326085.4164   23326088.9064
  -3601892.77349  -2806664.98344  22981965.1654   22981967.1324
  -1234708.12648   -962107.69544  25198511.1494   25198520.2014
  -1623247.08749  -1264866.87145  20801177.0734   20801178.6854
    622353.59949    484951.71245  20231075.4134   20231077.3004
  -1663120.04749  -1295932.97244  24513839.2784   24513844.9254
 98 10 31  0  1 32.0000000  0  8G31G 3G27G13G 2G19G18G10
  -2536601.16749  -1976569.73044  21491623.9364   21491626.2954
    245906.04349    191616.42444  22213497.8474   22213500.9324
  -3169485.96249  -2469725.45344  23325571.3424   23325574.6924
  -3604838.38249  -2808960.22444  22981404.3584   22981406.4914
  -1237600.08848   -964361.23744  25197960.6564   25197968.0884
  -1624524.15049  -1265861.98445  20800934.2994   20800935.8904
    623273.54849    485668.55845  20231250.4034   20231252.3274
  -1664213.81848  -1296785.45244  24513630.3174   24513635.2304
 98 10 31  0  1 33.0000000  0  8G31G 3G27G13G 2G19G18G10
  -2538452.37649  -1978012.23144  21491271.6714   21491274.0134
    246508.42349    192085.82244  22213612.6034   22213615.4684
  -3172184.67049  -2471828.36844  23325058.1604   23325061.7964
  -3607783.02649  -2811254.78444  22980843.8574   22980845.7124
  -1240491.22848   -966614.03444  25197410.7554   25197416.7804
  -1625800.29849  -1266856.37845  20800691.4234   20800693.0774
    624194.80649    486386.42445  20231425.5954   20231427.5064
  -1665306.34548  -1297636.80444  24513422.7644   24513427.4134
 98 10 31  0  1 34.0000000  0  8G31G 3G27G13G 2G19G18G10
  -2540302.92649  -1979454.23344  21490919.5614   21490921.7834
    247111.57749    192555.78944  22213727.4494   22213730.4944
  -3174883.21949  -2473931.18444  23324544.8014   23324547.9964
  -3610727.27849  -2813548.96744  22980283.3194   22980285.2174
  -1243382.09949   -968866.54344  25196860.5704   25196868.1724
  -1627076.08749  -1267850.49945  20800448.4174   20800450.0304
    625116.81149    487104.86645  20231600.9554   20231602.8304
  -1666398.21348  -1298487.55144  24513214.3444   24513220.7114
 98 10 31  0  1 35.0000000  0  8G31G 3G27G13G 2G19G18G10
  -2542152.96449  -1980895.80644  21490567.3314   21490569.6064
    247715.34049    193026.27744  22213842.4174   22213845.5654
  -3177581.77149  -2476033.88344  23324031.1364   23324034.2454
  -3613671.30649  -2815843.00444  22979722.4954   22979724.3444
  -1246272.88249   -971119.22244  25196310.3604   25196317.5654
  -1628351.68249  -1268844.47045  20800205.6824   20800207.2794
    626039.40649    487823.77345  20231776.4794   20231778.3394
  -1667489.56848  -1299337.97144  24513005.3674   24513009.7644
 98 10 31  0  1 36.0000000  0  8G31G27G13G 2G19G18G10G 3
  -2544002.77349  -1982337.20544  21490215.2594   21490217.7084
  -3180280.62549  -2478136.88644  23323517.4284   23323520.8644
  -3616615.38049  -2818137.10944  22979162.4344   22979164.6884
  -1249163.85649   -973371.78144  25195761.3994   25195767.9784
  -1629627.36349  -1269838.50145  20799962.9904   20799964.6584
    626962.30349    488542.91145  20231952.1674   20231954.0504
  -1668580.69548  -1300188.12944  24512797.9934   24512803.1174
    248319.43249    193497.00644  22213957.0354   22213960.2644
 98 10 31  0  1 37.0000000  0  8G31G 3G27G13G 2G19G18G10
  -2545852.19349  -1983778.32444  21489863.5754   21489865.9464
    248924.02549    193968.09344  22214072.2314   22214075.3544
  -3182979.60649  -2480240.01544  23323003.4414   23323006.6004
  -3619559.35349  -2820431.09944  22978602.0584   22978603.9774
  -1252054.83349   -975624.50744  25195210.5064   25195216.9784
  -1630902.96149  -1270832.47745  20799720.2174   20799721.8914
    627885.68249    489262.42945  20232127.9084   20232129.7554
  -1669671.43748  -1301038.14644  24512590.8644   24512594.7894
 98 10 31  0  1 38.0000000  0  8G31G 3G27G13G 2G19G18G10
  -2547701.14949  -1985219.06944  21489511.7164   21489514.1854
    249529.17449    194439.64044  22214187.1794   22214189.8604
  -3185678.64949  -2482343.11944  23322489.7084   23322493.2524
  -3622503.14949  -2822724.96844  22978042.0764   22978043.7394
  -1254945.77649   -977877.17144  25194660.5094   25194666.5644
  -1632178.41749  -1271826.33645  20799477.6694   20799479.3614
    628809.60549    489982.36945  20232303.9234   20232305.8794
  -1670761.71348  -1301887.61844  24512382.5714   24512387.4124
 98 10 31  0  1 39.0000000  0  8G31G 3G27G13G 2G19G18G10
  -2549549.58049  -1986659.39344  21489160.2464   21489162.6504
    250134.93949    194911.69044  22214302.4594   22214305.4004
  -3188377.69449  -2484446.29444  23321976.0164   23321979.4354
  -3625446.71149  -2825018.66244  22977481.5594   22977483.5654
  -1257836.60649   -980129.79744  25194110.5234   25194115.8184
  -1633453.68649  -1272820.05545  20799234.8974   20799236.5484
    629734.12849    490702.77845  20232479.9234   20232481.8354
  -1671851.45148  -1302736.75044  24512175.5924   24512180.4034
 98 10 31  0  1 40.0000000  0  8G31G 3G27G13G 2G19G18G10
  -2551397.52749  -1988099.35544  21488808.5344   21488810.9204
    250741.30649    195384.17444  22214418.0434   22214420.9894
  -3191076.78349  -2486549.47644  23321462.6374   23321466.1004
  -3628390.07449  -2827312.20044  22976921.4694   22976923.3274
  -1260727.35049   -982382.25244  25193559.8494   25193565.9214
  -1634728.79649  -1273813.64345  20798992.2394   20798993.8654
    630659.21949    491423.62945  20232655.8144   20232657.6674
  -1672940.71548  -1303585.60144  24511968.4474   24511972.6804
 98 10 31  0  1 41.0000000  0  8G31G 3G27G13G 2G19G18G10
  -2553245.08049  -1989538.99344  21488457.0514   21488459.5504
    251348.16349    195857.05744  22214533.4994   22214536.2444
  -3193776.00349  -2488652.74944  23320948.9384   23320952.1194
  -3631333.33949  -2829605.65544  22976361.4894   22976362.9954
  -1263618.13249   -984634.73144  25193010.5344   25193016.0864
  -1636003.82949  -1274807.16945  20798749.4574   20798751.0494
    631584.76749    492144.83445  20232831.9474   20232833.8514
  -1674029.57648  -1304434.02144  24511760.3014   24511763.0014
 98 10 31  0  1 42.0000000  0  8G31G 3G27G13G 2G19G18G10
  -2555092.22249  -1990978.32944  21488105.6734   21488108.2144
    251955.52649    196330.32344  22214648.8904   22214651.5904
  -3196475.34449  -2490756.10444  23320435.0864   23320438.3064
  -3634276.49549  -2831899.00144  22975801.1014   22975802.8564
  -1266508.92349   -986887.41144  25192460.1874   25192466.7954
  -1637278.78049  -1275800.63445  20798506.7884   20798508.3964
    632510.79449    492866.41645  20233008.0654   20233009.9324
  -1675118.03248  -1305282.22144  24511553.7884   24511556.1054
 98 10 31  0  1 43.0000000  0  8G31G 3G27G13G 2G19G18G10
  -2556938.94549  -1992417.33944  21487754.1354   21487756.5734
    252563.42049    196804.00044  22214764.5384   22214767.4114
  -3199174.78049  -2492859.57244  23319921.6374   23319924.8754
  -3637219.52949  -2834192.27844  22975241.2744   22975242.9084
  -1269399.71249   -989139.94344  25191910.0224   25191916.3554
  -1638553.66849  -1276794.05845  20798264.2224   20798265.8554
    633437.30049    493588.36745  20233184.2514   20233186.1624
  -1676206.06048  -1306129.97544  24511346.3134   24511352.2484
 98 10 31  0  1 44.0000000  0  8G31G 3G27G13G 2G19G18G10
  -2558785.29849  -1993856.03444  21487402.8564   21487405.2994
    253171.76349    197278.02644  22214880.3944   22214883.0364
  -3201874.38249  -2494963.17944  23319407.9864   23319411.6884
  -3640162.50449  -2836485.49244  22974681.4184   22974682.9864
  -1272290.56949   -991392.59944  25191360.1014   25191365.4424
  -1639828.52849  -1277787.45545  20798021.5184   20798023.1234
    634364.22349    494310.64545  20233360.6894   20233362.5324
  -1677293.73148  -1306977.61844  24511138.9774   24511142.6774
 98 10 31  0  1 45.0000000  0  8G31G 3G27G13G 2G19G18G10
  -2560631.13749  -1995294.35644  21487051.7654   21487054.2464
    253780.71449    197752.56244  22214996.4454   22214999.1214
  -3204573.99549  -2497066.78544  23318894.3084   23318897.8214
  -3643105.26449  -2838778.53244  22974121.5354   22974123.0164
  -1275181.34149   -993645.18144  25190810.0674   25190814.5824
  -1641103.20849  -1278780.70645  20797778.8774   20797780.4844
    635291.71249    495033.36645  20233537.1254   20233538.9404
  -1678380.87248  -1307824.60344  24510932.4914   24510936.5864
 98 10 31  0  1 46.0000000  0  8G31G 3G27G13G 2G19G18G10
  -2562476.35949  -1996732.19044  21486700.6634   21486703.0914
    254390.39549    198227.62544  22215112.5794   22215115.1794
  -3207273.51749  -2499170.26644  23318380.7544   23318384.0044
  -3646047.71649  -2841071.34544  22973561.7894   22973563.3254
  -1278071.91449   -995897.54544  25190259.8594   25190264.2764
  -1642377.62049  -1279773.75645  20797536.3324   20797537.9214
    636219.86649    495756.60245  20233713.8204   20233715.6604
  -1679467.40548  -1308671.31344  24510725.4804   24510729.7314
 98 10 31  0  1 47.0000000  0  8G31G 3G27G13G 2G19G18G10
  -2564320.98549  -1998169.56044  21486349.6774   21486352.2164
    255000.76349    198703.23744  22215228.6774   22215230.9574
  -3209972.96949  -2501273.71244  23317866.8134   23317870.3684
  -3648989.87149  -2843363.95644  22973002.1254   22973003.9264
  -1280962.33249   -998149.89244  25189709.5294   25189713.5134
  -1643651.78549  -1280766.61045  20797293.8624   20797295.4944
    637148.67249    496480.34745  20233890.6804   20233892.4874
  -1680553.33448  -1309517.53444  24510518.7684   24510525.5094
 98 10 31  0  1 48.0000000  0  8G31G 3G27G13G 2G19G18G10
  -2566165.21549  -1999606.62944  21485998.6974   21486001.2694
    255611.61549    199179.23144  22215345.2824   22215347.9314
  -3212672.55149  -2503377.31144  23317353.4894   23317356.8454
  -3651931.93949  -2845656.46744  22972441.9974   22972443.2914
  -1283852.79249  -1000402.08144  25189159.8224   25189163.9814
  -1644925.88849  -1281759.41845  20797051.4744   20797053.0724
    638077.91849    497204.43645  20234067.4064   20234069.2824
  -1681638.87048  -1310363.24844  24510313.0474   24510317.4824
 98 10 31  0  1 49.0000000  0  8G31G 3G27G13G 2G19G18G10
  -2568008.70049  -2001043.11044  21485647.8714   21485650.3444
    256223.32349    199655.88144  22215461.6884   22215464.5054
  -3215371.90649  -2505480.65644  23316839.7734   23316843.1694
  -3654873.56549  -2847948.66144  22971882.7144   22971883.9944
  -1286742.92249  -1002654.06844  25188609.6534   25188613.8934
  -1646199.61249  -1282751.92245  20796809.0964   20796810.7084
    639007.96749    497929.14845  20234244.4154   20234246.2734
  -1682723.65048  -1311208.77144  24510106.5664   24510111.5214
 98 10 31  0  1 50.0000000  0  8G31G 3G27G13G 2G19G18G10
  -2569851.60049  -2002479.12144  21485296.9194   21485299.4044
    256835.69749    200133.04744  22215577.9664   22215580.4094
  -3218071.21249  -2507584.02544  23316326.0164   23316329.5934
  -3657814.91049  -2850240.60844  22971322.7214   22971324.0954
  -1289632.91849  -1004906.11944  25188059.6084   25188062.2944
  -1647473.10449  -1283744.25445  20796566.6424   20796568.3164
    639938.65049    498654.35945  20234421.5534   20234423.3634
  -1683807.85648  -1312053.41544  24509900.3714   24509907.4464
 98 10 31  0  1 51.0000000  0  8G31G 3G27G13G 2G19G18G10
  -2571694.15849  -2003914.88444  21484946.5814   21484949.0994
    257448.49349    200610.55644  22215694.6274   22215697.1004
  -3220770.71449  -2509687.52844  23315812.0304   23315815.7894
  -3660756.21449  -2852532.52444  22970763.3934   22970764.7524
  -1292523.00849  -1007158.12244  25187510.1704   25187514.7404
  -1648746.60049  -1284736.58745  20796324.3604   20796326.0304
    640869.72249    499379.86945  20234598.9134   20234600.7794
  -1684891.71648  -1312897.98244  24509693.3684   24509701.4004
 98 10 31  0  1 52.0000000  0  8G31G 3G27G13G 2G19G18G10
  -2573535.69249  -2005349.84344  21484595.9434   21484598.4084
    258062.41749    201088.94244  22215811.2084   22215813.9534
  -3223469.71549  -2511790.66444  23315298.5734   23315302.0504
  -3663696.80149  -2854823.83844  22970203.8794   22970205.3264
  -1295412.48149  -1009409.65044  25186959.9024   25186964.1884
  -1650019.43149  -1285728.39845  20796082.0504   20796083.7364
    641801.88349    500106.22945  20234776.3344   20234778.1144
  -1685974.51648  -1313741.85144  24509488.2244   24509493.9384
 98 10 31  0  1 53.0000000  0  8G31G 3G27G13G 2G19G18G10
  -2575376.30349  -2006784.08544  21484245.6924   21484248.1234
    258677.33949    201568.13544  22215928.2814   22215931.0744
  -3226168.34349  -2513893.46144  23314785.1934   23314789.1494
  -3666636.77249  -2857114.75944  22969644.4644   22969646.0734
  -1298301.48149  -1011660.80444  25186410.5044   25186415.0634
  -1651291.68849  -1286719.76245  20795839.8474   20795841.4894
    642735.01149    500833.34245  20234954.1294   20234955.9144
  -1687056.40448  -1314584.73844  24509282.4344   24509288.8884
 98 10 31  0  1 54.0000000  0  8G31G 3G27G13G 2G19G18G10
  -2577216.34549  -2008217.88844  21483895.7734   21483898.1074
    259292.90849    202047.78344  22216045.1984   22216047.8224
  -3228866.93449  -2515996.29944  23314271.8374   23314275.9394
  -3669576.48549  -2859405.45644  22969085.1294   22969086.5244
  -1301190.33849  -1013911.86544  25185860.5354   25185864.8974
  -1652563.72149  -1287710.96245  20795597.7104   20795599.4474
    643668.75949    501560.94145  20235131.8464   20235133.6304
  -1688137.71248  -1315427.38044  24509076.7664   24509082.6364
 98 10 31  0  1 55.0000000  0  8G31G 3G27G13G 2G19G18G10
  -2579055.55849  -2009651.03744  21483545.7974   21483548.2104
    259909.38849    202528.15444  22216162.4614   22216164.7794
  -3231565.24349  -2518098.87244  23313757.8934   23313761.6404
  -3672515.68049  -2861695.72444  22968525.7784   22968527.1604
  -1304078.79049  -1016162.60044  25185311.6634   25185315.8984
  -1653835.26749  -1288701.77845  20795355.6564   20795357.3644
    644603.39249    502289.22345  20235309.7514   20235311.5134
  -1689218.17948  -1316269.29044  24508871.1754   24508877.3174
 98 10 31  0  1 56.0000000  0  8G31G27G13G 2G19G18G10G 3
  -2580894.29349  -2011083.82344  21483195.9324   21483198.2474
  -3234263.61149  -2520201.47344  23313244.9554   23313248.9104
  -3675454.70349  -2863985.86344  22967966.5604   22967968.0824
  -1306967.20449  -1018413.21744  25184761.9674   25184766.9414
  -1655106.67649  -1289692.48245  20795113.7654   20795115.4564
    645538.56149    503017.92745  20235487.6694   20235489.4434
  -1690298.16348  -1317110.83144  24508665.7044   24508671.5504
    260526.42549    203008.95344  22216280.1224   22216282.7054
 98 10 31  0  1 57.0000000  0  8G31G 3G27G13G 2G19G18G10
  -2582732.75149  -2012516.37944  21482846.0174   21482848.3384
    261143.81549    203490.05144  22216397.5834   22216400.2214
  -3236962.24149  -2522304.30444  23312731.7424   23312735.5844
  -3678393.74549  -2866276.03944  22967407.1144   22967408.5864
  -1309855.76549  -1020664.17744  25184213.1204   25184217.1494
  -1656378.14749  -1290683.23145  20794871.7374   20794873.5184
    646474.05649    503746.88445  20235665.4614   20235667.2404
  -1691377.87148  -1317952.16044  24508459.7404   24508467.0904
 98 10 31  0  1 58.0000000  0  8G31G 3G27G13G 2G19G18G10
  -2584570.64849  -2013948.50144  21482496.2644   21482498.6644
    261761.84949    203971.64144  22216515.2214   22216517.7454
  -3239660.85049  -2524407.07044  23312217.7734   23312221.6964
  -3681332.52449  -2868566.01144  22966847.8464   22966848.9414
  -1312744.19249  -1022914.89144  25183663.2784   25183668.0064
  -1657649.40549  -1291673.82345  20794629.7544   20794631.5634
    647410.15849    504476.30945  20235843.5024   20235845.2684
  -1692457.01748  -1318793.03744  24508254.3484   24508258.7904
 98 10 31  0  1 59.0000000  0  8G31G 3G27G13G 2G19G18G10
  -2586408.06049  -2015380.25844  21482146.4524   21482148.9324
    262380.43849    204453.64744  22216633.2004   22216635.6124
  -3242359.51349  -2526509.94344  23311703.7094   23311708.0784
  -3684271.11649  -2870855.81944  22966288.7974   22966289.8114
  -1315632.56849  -1025165.56544  25183113.1504   25183117.6404
  -1658920.53049  -1292664.31245  20794387.9674   20794389.8094
    648346.79449    505206.16145  20236021.7844   20236023.5174
  -1693535.66748  -1319633.47444  24508050.5004   24508056.3884
 98 10 31  0  2  0.0000000  0  8G31G 3G27G13G 2G19G18G10
  -2588245.04549  -2016811.65244  21481796.9854   21481799.3374
    262999.52449    204936.06644  22216750.6354   22216753.0074
  -3245058.28949  -2528612.89344  23311190.7114   23311195.3404
  -3687209.58049  -2873145.49644  22965729.6484   22965730.8604
  -1318520.97649  -1027416.30944  25182563.7274   25182567.5204
  -1660191.57849  -1293654.74045  20794146.1124   20794147.9824
    649283.90349    505936.37545  20236200.0444   20236201.7494
  -1694613.89548  -1320473.76444  24507844.8494   24507849.6884
 98 10 31  0  2  1.0000000  0  8G31G 3G27G13G 2G19G18G10
  -2590081.60949  -2018242.74044  21481447.1374   21481449.4774
    263619.11749    205418.85844  22216868.6604   22216871.1064
  -3247757.17749  -2530715.95144  23310676.8344   23310681.1324
  -3690147.91549  -2875435.15244  22965169.8804   22965170.7414
  -1321409.37149  -1029666.90044  25182014.8494   25182019.3074
  -1661462.54249  -1294645.09645  20793904.5414   20793906.4084
    650221.47149    506666.95045  20236378.3524   20236380.0094
  -1695691.67648  -1321313.57144  24507640.3814   24507644.5884
 98 10 31  0  2  2.0000000  0  8G31G 3G27G13G 2G19G18G10
  -2591917.77349  -2019673.50744  21481097.8314   21481100.2644
    264239.17549    205902.00444  22216986.5754   22216988.9634
  -3250456.20149  -2532819.05244  23310163.2304   23310167.3114
  -3693086.14749  -2877724.63744  22964611.0594   22964611.8854
  -1324297.80849  -1031917.70544  25181464.6454   25181469.9094
  -1662733.44049  -1295635.40345  20793662.6994   20793664.6494
    651159.48749    507397.86745  20236556.9834   20236558.6764
  -1696769.05048  -1322153.06344  24507434.4944   24507439.7574
 98 10 31  0  2  3.0000000  0  8G31G 3G27G13G 2G19G18G10
  -2593753.21649  -2021103.73444  21480748.4554   21480750.9304
    264860.03649    206385.82344  22217104.3604   22217106.8554
  -3253155.03949  -2534922.05444  23309649.6264   23309653.6054
  -3696023.95149  -2880013.83244  22964051.6984   22964052.6934
  -1327185.95049  -1034168.13444  25180915.6094   25180921.5114
  -1664003.96149  -1296625.42145  20793420.9044   20793422.7714
    652098.27649    508129.39545  20236735.6894   20236737.3454
  -1697845.68448  -1322991.91244  24507231.1314   24507237.3764
 98 10 31  0  2  4.0000000  0  8G31G 3G27G13G 2G19G18G10
  -2595588.13149  -2022533.54144  21480399.2534   21480401.7214
    265481.51049    206870.08744  22217222.7814   22217225.1834
  -3255853.87249  -2537025.03444  23309136.3294   23309140.4684
  -3698961.52049  -2882302.84544  22963493.0074   22963493.9324
  -1330073.99449  -1036418.61444  25180365.2114   25180371.5594
  -1665274.30149  -1297615.29445  20793179.0894   20793180.9814
    653037.64549    508861.37345  20236914.6244   20236916.3414
  -1698921.78948  -1323830.55644  24507025.8284   24507032.0474
 98 10 31  0  2  5.0000000  0  8G31G 3G27G13G 2G19G18G10
  -2597422.66249  -2023963.03844  21480050.1674   21480052.6614
    266103.43949    207354.69444  22217341.3584   22217343.8394
  -3258552.85649  -2539128.13344  23308622.6004   23308626.5424
  -3701898.99849  -2884591.80444  22962933.7854   22962934.8294
  -1332962.09349  -1038669.13844  25179815.5744   25179821.6344
  -1666544.59249  -1298605.13445  20792937.2224   20792939.1514
    653977.44649    509593.68245  20237093.4704   20237095.1964
  -1699997.48648  -1324668.61444  24506820.6934   24506828.4854
 98 10 31  0  2  6.0000000  0  8G31G 3G27G13G 2G19G18G10
  -2599256.88349  -2025392.29544  21479701.2634   21479703.7004
    266725.75349    207839.62344  22217459.6854   22217462.2004
  -3261252.05749  -2541231.39644  23308109.0174   23308113.2594
  -3704836.45949  -2886880.72644  22962374.9954   22962375.9774
  -1335850.32449  -1040919.59144  25179266.1654   25179271.5924
  -1667814.90449  -1299594.97345  20792695.4584   20792697.2744
    654917.60649    510326.28045  20237272.3594   20237274.0734
  -1701072.86248  -1325506.76544  24506616.0594   24506622.6114
 98 10 31  0  2  7.0000000  0  8G31G 3G27G13G 2G19G18G10
  -2601090.74749  -2026821.28344  21479352.2824   21479354.8574
    267348.49349    208324.87044  22217578.3134   22217580.9584
  -3263951.41849  -2543334.80344  23307595.6544   23307599.2584
  -3707773.86949  -2889169.62944  22961815.8544   22961817.0424
  -1338738.62949  -1043170.19044  25178716.6174   25178721.3884
  -1669085.20249  -1300584.81845  20792453.7334   20792455.6624
    655858.16649    511059.18045  20237451.4744   20237453.1464
  -1702147.86748  -1326344.24044  24506411.1964   24506418.0684
 98 10 31  0  2  8.0000000  0  8G31G 3G27G13G 2G19G18G10
  -2602924.08249  -2028249.85444  21479003.3364   21479005.6474
    267971.82349    208810.58044  22217696.9024   22217699.5194
  -3266650.77549  -2545438.20644  23307082.1074   23307085.9834
  -3710711.04249  -2891458.31344  22961257.2174   22961258.2954
  -1341626.85349  -1045420.79044  25178166.7894   25178171.3454
  -1670355.30449  -1301574.50945  20792212.0474   20792213.9554
    656799.30349    511792.53345  20237630.3284   20237631.9854
  -1703222.34849  -1327181.58444  24506206.9714   24506211.5514
 98 10 31  0  2  9.0000000  0  8G31G 3G27G13G 2G19G18G10
  -2604756.71549  -2029677.88344  21478654.8124   21478657.1664
    268595.91949    209296.89444  22217815.7074   22217818.3044
  -3269349.95949  -2547541.45944  23306568.2684   23306572.1994
  -3713647.80249  -2893746.71044  22960697.8864   22960699.1524
  -1344514.81649  -1047671.11844  25177617.1294   25177624.0794
  -1671625.03949  -1302563.90945  20791970.4834   20791972.3654
    657741.19349    512526.47745  20237809.4114   20237811.1384
  -1704296.10948  -1328018.27444  24506003.1684   24506009.0724
 98 10 31  0  2 10.0000000  0  8G31G 3G27G13G 2G19G18G10
  -2606588.65349  -2031105.36844  21478306.0604   21478308.5024
    269220.77949    209783.78544  22217934.3274   22217936.6644
  -3272048.96849  -2549644.57644  23306055.1614   23306059.0954
  -3716584.16149  -2896034.77544  22960139.4044   22960140.7454
  -1347402.51949  -1049921.33844  25177067.5164   25177073.6654
  -1672894.41649  -1303553.03645  20791728.8474   20791730.8014
    658683.82049    513260.98645  20237988.7044   20237990.4264
  -1705369.15948  -1328854.42244  24505798.7024   24505806.3544
 98 10 31  0  2 11.0000000  0  8G31G 3G27G13G 2G19G18G10
  -2608420.04349  -2032532.41744  21477957.4474   21477959.8504
    269846.24949    210271.16544  22218053.5854   22218055.8654
  -3274747.95749  -2551747.66344  23305541.6534   23305546.0014
  -3719520.26549  -2898322.65744  22959580.7264   22959582.4834
  -1350290.11949  -1052171.43944  25176518.0524   25176523.7264
  -1674163.59049  -1304541.99845  20791487.3114   20791489.2644
    659627.04049    513995.96245  20238167.9554   20238169.6534
  -1706441.65648  -1329690.15344  24505594.0064   24505598.8074
 98 10 31  0  2 12.0000000  0  8G31G 3G27G13G 2G19G18G10
  -2610250.14349  -2033958.47644  21477609.2104   21477611.4774
    270473.07749    210759.62844  22218172.8544   22218175.3464
  -3277446.18449  -2553850.19244  23305028.1324   23305032.6294
  -3722455.36649  -2900609.73844  22959021.8144   22959023.2084
  -1353176.86049  -1054420.84744  25175968.5374   25175974.2294
  -1675431.81249  -1305530.22545  20791245.9784   20791247.9844
    660571.59649    514731.98245  20238347.6224   20238349.4064
  -1707512.86148  -1330524.76744  24505390.8214   24505398.2604
 98 10 31  0  2 13.0000000  0  8G31G 3G27G13G 2G19G18G10
  -2612079.11349  -2035383.63744  21477261.3764   21477263.7114
    271101.11049    211248.98244  22218292.4154   22218294.9734
  -3280143.79549  -2555952.20144  23304514.8734   23304518.8304
  -3725389.63349  -2902896.16344  22958463.2544   22958464.8724
  -1356062.90549  -1056669.62544  25175419.0964   25175424.7994
  -1676699.23549  -1306517.82445  20791004.6264   20791006.6964
    661517.33349    515468.92245  20238527.5314   20238529.2614
  -1708582.92848  -1331358.58844  24505186.9184   24505192.8674
 98 10 31  0  2 14.0000000  0  8G31G 3G27G13G 2G19G18G10
  -2613907.40549  -2036808.27044  21476913.2584   21476915.6524
    271729.87949    211738.92844  22218411.9604   22218414.5134
  -3282841.25249  -2558054.12244  23304001.6134   23304005.7844
  -3728323.51349  -2905182.34044  22957905.1434   22957906.6624
  -1358948.71649  -1058918.32444  25174869.8704   25174875.8124
  -1677966.31149  -1307505.15345  20790763.5614   20790765.7114
    662463.79649    516206.42245  20238707.5204   20238709.2374
  -1709652.31248  -1332191.99244  24504983.4904   24504989.2344
 98 10 31  0  2 15.0000000  0  8G31G 3G27G13G 2G19G18G10
  -2615735.06049  -2038232.42044  21476565.3894   21476567.6814
    272359.34049    212229.43044  22218531.8974   22218534.3174
  -3285538.59749  -2560155.93844  23303488.2084   23303492.1664
  -3731257.04749  -2907468.18744  22957346.9734   22957348.1444
  -1361834.32549  -1061166.83944  25174321.2584   25174327.6874
  -1679233.09249  -1308492.25345  20790522.4444   20790524.5294
    663410.94749    516944.46345  20238887.8654   20238889.5334
  -1710721.06548  -1333024.69944  24504779.8604   24504787.2174
 98 10 31  0  2 16.0000000  0  8G31G 3G27G13G 2G19G18G10
  -2617562.17049  -2039656.15044  21476217.9054   21476220.2524
    272989.41949    212720.41544  22218651.6534   22218653.9534
  -3288235.89849  -2562257.73644  23302975.1824   23302979.3074
  -3734190.32849  -2909753.85044  22956788.4464   22956789.6484
  -1364719.82549  -1063415.28344  25173771.5474   25173777.0554
  -1680499.66349  -1309479.19945  20790281.4644   20790283.6064
    664358.68649    517682.96745  20239068.3384   20239070.0614
  -1711789.27248  -1333857.19344  24504576.9014   24504584.6404
 98 10 31  0  2 17.0000000  0  8G31G 3G27G13G 2G19G18G10
  -2619388.73849  -2041079.43244  21475870.3054   21475872.6754
    273620.09949    213211.86144  22218771.6594   22218773.9784
  -3290933.17249  -2564359.51144  23302461.7564   23302465.6184
  -3737123.35849  -2912039.34144  22956230.2864   22956231.1854
  -1367605.22249  -1065663.63544  25173222.7004   25173230.5864
  -1681766.03849  -1310465.98345  20790040.3864   20790042.4904
    665307.01249    518421.92245  20239248.7694   20239250.5324
  -1712856.93648  -1334688.94244  24504374.0074   24504380.6434
 98 10 31  0  2 18.0000000  0  8G31G 3G27G13G 2G19G18G10
  -2621214.89049  -2042502.41744  21475522.7504   21475525.0004
    274251.25949    213703.67044  22218891.7994   22218894.0144
  -3293630.53649  -2566461.36044  23301948.6344   23301952.4944
  -3740056.25849  -2914324.68744  22955672.1064   22955673.0524
  -1370490.65549  -1067911.99244  25172673.0054   25172680.1974
  -1683032.33849  -1311452.70345  20789799.3614   20789801.5114
    666255.80449    519161.23845  20239429.5964   20239431.3314
  -1713924.19448  -1335520.66844  24504170.1604   24504176.0814
 98 10 31  0  2 19.0000000  0  8G31G 3G27G13G 2G19G18G10
  -2623040.62949  -2043925.05844  21475175.4694   21475177.7774
    274882.89849    214195.86044  22219011.6674   22219014.1884
  -3296327.99049  -2568563.24844  23301435.2324   23301439.0914
  -3742989.03849  -2916609.93744  22955114.0464   22955115.1964
  -1373376.10749  -1070160.57644  25172124.5194   25172132.5934
  -1684298.57649  -1312439.38345  20789558.5604   20789560.7244
    667205.05149    519900.90945  20239610.2504   20239611.9564
  -1714991.03948  -1336351.97644  24503966.0444   24503973.6034
 98 10 31  0  2 20.0000000  0  8G31G 3G27G13G 2G19G18G10
  -2624865.83249  -2045347.29744  21474828.0834   21474830.4164
    275515.13549    214688.49044  22219132.2604   22219134.6184
  -3299025.43049  -2570665.16544  23300921.9544   23300925.5864
  -3745921.56849  -2918895.05244  22954555.9414   22954557.0074
  -1376261.46649  -1072408.88144  25171575.4894   25171582.3744
  -1685564.61649  -1313425.91045  20789317.5894   20789319.7984
    668154.88749    520641.04845  20239791.1024   20239792.8694
  -1716057.34848  -1337182.81344  24503763.2494   24503770.5574
 98 10 31  0  2 21.0000000  0  8G31G 3G27G13G 2G19G18G10
  -2626690.53249  -2046769.13344  21474480.6554   21474482.9444
    276147.93549    215181.58644  22219252.4224   22219254.9644
  -3301722.88349  -2572767.05844  23300408.5124   23300412.4404
  -3748853.88749  -2921179.97144  22953998.0944   22953999.5424
  -1379146.76149  -1074656.90544  25171026.0024   25171033.3974
  -1686830.48549  -1314412.29645  20789076.8244   20789079.0064
    669105.26849    521381.60445  20239971.9724   20239973.7414
  -1717123.15648  -1338013.33744  24503560.6064   24503567.8144
 98 10 31  0  2 22.0000000  0  8G31G 3G27G13G 2G19G18G10
  -2628514.79849  -2048190.63844  21474133.8334   21474136.0594
    276781.22749    215675.07044  22219373.1124   22219375.3864
  -3304420.41649  -2574869.02644  23299895.3154   23299898.9184
  -3751786.05449  -2923464.75044  22953440.0914   22953441.2734
  -1382032.06249  -1076905.27844  25170476.9564   25170484.2104
  -1688096.26249  -1315398.61245  20788835.9514   20788838.1754
    670056.11749    522122.52345  20240152.8054   20240154.5674
  -1718188.55148  -1338843.49044  24503356.5614   24503363.8964
 98 10 31  0  2 23.0000000  0  8G31G 3G27G13G 2G19G18G10
  -2630338.64749  -2049611.82244  21473786.8374   21473789.1474
    277414.98649    216168.91344  22219493.2614   22219495.7294
  -3307118.07049  -2576971.08044  23299381.1434   23299384.9154
  -3754718.10849  -2925749.52844  22952882.2254   22952883.3964
  -1384917.38349  -1079153.64644  25169927.9884   25169934.5474
  -1689361.98249  -1316384.88845  20788595.2034   20788597.4024
    671007.41949    522863.79645  20240333.7324   20240335.4994
  -1719253.54248  -1339673.56544  24503153.8164   24503162.4524
 98 10 31  0  2 24.0000000  0  8G31G 3G27G13G 2G19G18G10
  -2632161.99049  -2051032.61844  21473439.4064   21473441.6734
    278049.30249    216663.18244  22219613.9174   22219616.3284
  -3309815.74949  -2579073.19244  23298867.6094   23298871.3784
  -3757649.95949  -2928034.07544  22952324.1974   22952325.2454
  -1387802.64349  -1081401.88344  25169378.4914   25169385.0624
  -1690627.54349  -1317371.03645  20788354.4014   20788356.5794
    671959.26449    523605.49945  20240514.9174   20240516.6674
  -1720318.04547  -1340502.81944  24502951.6714   24502956.8854
 98 10 31  0  2 25.0000000  0  8G31G 3G27G13G 2G19G18G10
  -2633984.78149  -2052452.96544  21473092.6324   21473094.8394
    278684.22349    217157.92744  22219734.8234   22219736.8864
  -3312513.40949  -2581175.27344  23298354.1164   23298358.0724
  -3760581.55249  -2930318.41544  22951766.3874   22951767.3054
  -1390687.78849  -1083650.00044  25168829.8914   25168836.8964
  -1691892.91549  -1318357.03945  20788113.5454   20788115.7884
    672911.69849    524347.65145  20240696.0424   20240697.8494
  -1721382.03148  -1341332.01744  24502749.7414   24502757.5664
 98 10 31  0  2 26.0000000  0  8G31G 3G27G13G 2G19G18G10
  -2635807.00849  -2053872.87444  21472745.8924   21472748.1624
    279319.76149    217653.16944  22219855.8214   22219858.0934
  -3315211.04549  -2583277.33344  23297840.5004   23297844.1254
  -3763512.87449  -2932602.58244  22951208.5164   22951209.6664
  -1393572.81049  -1085898.05644  25168281.1294   25168288.2884
  -1693158.08749  -1319342.89145  20787872.6824   20787874.9404
    673864.73249    525090.27745  20240877.3434   20240879.1524
  -1722445.46947  -1342160.62944  24502547.0924   24502552.9364
 98 10 31  0  2 27.0000000  0  8G31G 3G27G13G 2G19G18G10
  -2637628.73249  -2055292.40944  21472399.3124   21472401.6344
    279955.87049    218148.80944  22219976.6064   22219978.6934
  -3317908.70449  -2585379.39344  23297327.0384   23297330.5934
  -3766443.98549  -2934886.55244  22950650.9454   22950651.8194
  -1396457.77749  -1088146.02044  25167732.0134   25167737.9464
  -1694423.10449  -1320328.61345  20787631.8924   20787634.2224
    674818.30649    525833.32245  20241058.9354   20241060.7314
  -1723508.42748  -1342988.93344  24502344.8154   24502351.5734
 98 10 31  0  2 28.0000000  0  8G31G 3G27G13G 2G19G18G10
  -2639449.95349  -2056711.53644  21472052.6764   21472054.9044
    280592.53849    218644.94244  22220097.9344   22220099.8054
  -3320606.37649  -2587481.46244  23296813.6984   23296817.2344
  -3769374.87349  -2937170.37044  22950092.9984   22950094.1754
  -1399342.67249  -1090394.09344  25167183.3474   25167188.9024
  -1695687.97849  -1321314.23045  20787390.9534   20787393.2354
    675772.41549    526576.78245  20241240.4424   20241242.1804
  -1724570.90848  -1343816.88244  24502141.9514   24502150.2944
 98 10 31  0  2 29.0000000  0  8G31G 3G27G13G 2G19G18G10
  -2641270.69049  -2058130.28444  21471706.1824   21471708.4584
    281229.75249    219141.46044  22220219.4714   22220221.6684
  -3323304.09649  -2589583.57744  23296300.1454   23296303.6614
  -3772305.57049  -2939454.01244  22949535.4164   22949536.5784
  -1402227.52349  -1092642.07044  25166633.9764   25166640.6664
  -1696952.69949  -1322299.72345  20787150.4644   20787152.7544
    676727.04949    527320.65945  20241422.2234   20241423.9644
  -1725632.91848  -1344644.16744  24501941.0474   24501946.9924
 98 10 31  0  2 30.0000000  0  8G31G 3G27G13G 2G19G18G10
  -2643090.98149  -2059548.69844  21471359.7464   21471361.9754
    281867.46349    219638.37644  22220341.0064   22220343.5024
  -3326001.90049  -2591685.75544  23295786.7344   23295790.3084
  -3775236.10349  -2941737.54844  22948977.9134   22948979.2724
  -1405112.37349  -1094889.88344  25166084.7844   25166091.4304
  -1698217.31149  -1323285.13645  20786909.6604   20786912.0444
    677682.16649    528064.90245  20241603.9934   20241605.7754
  -1726694.49948  -1345471.41944  24501738.3674   24501743.9564
 98 10 31  0  2 31.0000000  0  8G31G 3G27G13G 2G19G18G10
  -2644910.71949  -2060966.66544  21471013.3404   21471015.5384
    282505.78949    220135.77144  22220462.0994   22220464.4504
  -3328699.67249  -2593787.94544  23295273.3664   23295276.7894
  -3778166.37249  -2944020.86844  22948420.4214   22948421.6354
  -1407997.10649  -1097137.77844  25165536.4264   25165542.4644
  -1699481.73549  -1324270.39345  20786669.0754   20786671.4244
    678637.86649    528809.60345  20241785.8364   20241787.5914
  -1727755.55248  -1346298.27744  24501536.3844   24501542.1964
 98 10 31  0  2 32.0000000  0  8G31G 3G27G13G 2G19G18G10
  -2646729.10949  -2062383.59544  21470667.4424   21470669.7344
    283145.50749    220634.24344  22220583.7974   22220586.1264
  -3331396.63849  -2595889.46644  23294760.0734   23294763.6884
  -3781095.58849  -2946303.35244  22947862.8574   22947864.4924
  -1410880.94949  -1099384.92444  25164987.5164   25164993.6984
  -1700745.16549  -1325254.88845  20786428.6784   20786431.0944
    679594.93649    529555.37645  20241968.0474   20241969.8014
  -1728815.27348  -1347124.00844  24501334.4124   24501340.3844
 98 10 31  0  2 33.0000000  0  8G31G 3G27G13G 2G19G18G10
  -2648546.46049  -2063799.71444  21470321.7614   21470324.0124
    283786.31349    221133.57844  22220705.8184   22220708.2734
  -3334093.08649  -2597990.58144  23294246.6874   23294249.9004
  -3784024.04349  -2948585.28044  22947305.5734   22947306.6074
  -1413764.19749  -1101631.49744  25164438.5864   25164444.2464
  -1702007.91649  -1326238.84345  20786188.3414   20786190.8264
    680553.08249    530301.98345  20242150.3404   20242152.0754
  -1729873.98448  -1347949.09844  24501132.8864   24501136.8484
 98 10 31  0  2 34.0000000  0  8G31G 3G27G13G 2G19G18G10
  -2650362.95949  -2065215.15144  21469976.1174   21469978.3664
    284428.00849    221633.60644  22220827.7664   22220830.0314
  -3336789.21349  -2600091.45644  23293733.5424   23293737.3854
  -3786951.93149  -2950866.75044  22946748.3374   22946749.6724
  -1416647.04849  -1103877.96044  25163890.0584   25163896.5674
  -1703270.19649  -1327222.43745  20785948.1454   20785950.5804
    681512.10549    531049.27045  20242332.8374   20242334.6004
  -1730931.87248  -1348773.32444  24500932.3694   24500936.6864
 98 10 31  0  2 35.0000000  0  8G31G 3G27G13G 2G19G18G10
  -2652178.73649  -2066630.04644  21469630.6274   21469632.9054
    285070.46249    222134.22444  22220950.1124   22220952.2684
  -3339485.15749  -2602192.15744  23293220.5554   23293223.8274
  -3789879.39049  -2953147.86344  22946191.5474   22946193.0104
  -1419529.64549  -1106124.18844  25163342.4314   25163348.4534
  -1704532.10749  -1328205.75745  20785707.9264   20785710.3684
    682471.87449    531797.14045  20242515.4864   20242517.1594
  -1731989.07648  -1349597.09844  24500731.3874   24500737.7254
 98 10 31  0  2 36.0000000  0  8G31G 3G27G13G 2G19G18G10
  -2653993.95949  -2068044.51344  21469285.2594   21469287.4724
    285713.51249    222635.31944  22221072.4344   22221074.8524
  -3342181.08649  -2604292.87444  23292707.3454   23292710.9274
  -3792806.58649  -2955428.82044  22945634.7874   22945636.1844
  -1422412.14149  -1108370.20244  25162793.9524   25162800.5224
  -1705793.82749  -1329188.90045  20785467.8564   20785470.3774
    683432.22849    532545.47345  20242698.2794   20242700.0214
  -1733045.75148  -1350420.57944  24500529.8694   24500536.5974
 98 10 31  0  2 37.0000000  0  8G31G 3G27G13G 2G19G18G10
  -2655808.74349  -2069458.62544  21468939.7504   21468941.8744
    286357.04049    223136.74644  22221195.0894   22221197.5874
  -3344877.11349  -2606393.65844  23292194.1424   23292198.0814
  -3795733.62549  -2957709.59344  22945077.6074   22945078.9554
  -1425294.65649  -1110616.40244  25162245.2564   25162252.4214
  -1707055.48649  -1330172.01245  20785227.7174   20785230.2364
    684393.04849    533294.16345  20242881.0444   20242882.7354
  -1734102.02848  -1351243.60344  24500329.0054   24500333.8984
 98 10 31  0  2 38.0000000  0  8G31G 3G27G13G 2G19G18G10
  -2657622.99249  -2070872.32944  21468594.1284   21468596.3664
    287001.13949    223638.64544  22221317.8364   22221320.1864
  -3347573.14249  -2608494.46544  23291681.0314   23291684.9314
  -3798660.42249  -2959990.21444  22944521.0594   22944522.2764
  -1428177.09549  -1112862.38344  25161696.3234   25161702.8904
  -1708316.98049  -1331154.99345  20784987.6464   20784990.1864
    685354.43349    534043.29445  20243064.0884   20243065.7984
  -1735157.79848  -1352066.33144  24500128.9024   24500135.3504
 98 10 31  0  2 39.0000000  0  8G31G 3G27G13G 2G19G18G10
  -2659436.65149  -2072285.56344  21468249.2184   21468251.3914
    287645.86049    224141.03744  22221440.2324   22221442.5164
  -3350269.12649  -2610595.23044  23291168.1234   23291171.6284
  -3801586.92049  -2962270.65644  22943963.9124   22943965.1734
  -1431059.40849  -1115108.42644  25161148.2614   25161153.4334
  -1709578.26649  -1332137.81145  20784747.5364   20784750.1034
    686316.42949    534792.90945  20243247.1534   20243248.9324
  -1736213.01848  -1352888.57244  24499927.7764   24499932.9524
 98 10 31  0  2 40.0000000  0  8G31G 3G27G13G 2G19G18G10
  -2661249.63149  -2073698.27044  21467904.2144   21467906.3434
    288291.28349    224643.96244  22221563.1804   22221565.5804
  -3352964.97049  -2612695.87544  23290655.2954   23290659.2954
  -3804513.02749  -2964550.70044  22943407.3654   22943408.4874
  -1433941.50249  -1117354.07144  25160599.8624   25160606.7754
  -1710839.26949  -1333120.41445  20784507.5554   20784510.1584
    687279.12149    535543.05445  20243430.4224   20243432.1304
  -1737267.59048  -1353710.10944  24499727.2484   24499733.0054
 98 10 31  0  2 41.0000000  0  8G31G 3G27G13G 2G19G18G10
  -2663062.18949  -2075110.65144  21467559.2274   21467561.3884
    288937.17649    225147.24244  22221686.0724   22221688.5794
  -3355660.92849  -2614796.64444  23290142.3274   23290145.9864
  -3807439.00849  -2966830.67344  22942850.6764   22942851.7154
  -1436823.62749  -1119599.90044  25160051.6084   25160058.7504
  -1712100.20849  -1334102.95645  20784267.6774   20784270.2814
    688242.27149    536293.56045  20243613.6234   20243615.3444
  -1738321.75848  -1354531.83044  24499527.1934   24499534.8454
 98 10 31  0  2 42.0000000  0  8G31G 3G27G13G 2G19G18G10
  -2664874.14149  -2076522.56544  21467214.3124   21467216.4474
    289583.71449    225651.06044  22221809.0904   22221811.5404
  -3358356.81449  -2616897.31044  23289629.4954   23289632.9634
  -3810364.66649  -2969110.39544  22942294.0584   22942295.1204
  -1439705.60049  -1121845.56044  25159502.7494   25159509.4424
  -1713360.91249  -1335085.32045  20784027.7724   20784030.4084
    689206.06149    537044.56645  20243797.0004   20243798.7354
  -1739375.34948  -1355352.64244  24499327.0574   24499333.7884
 98 10 31  0  2 43.0000000  0  8G31G 3G27G13G 2G19G18G10
  -2666685.51849  -2077934.02144  21466869.7644   21466871.8994
    290230.86449    226155.33244  22221932.3624   22221934.5564
  -3361052.65749  -2618998.00244  23289116.7544   23289120.3844
  -3813290.04349  -2971389.91344  22941737.5494   22941738.6994
  -1442587.45249  -1124091.32844  25158954.9504   25158962.1984
  -1714621.42349  -1336067.53745  20783788.0424   20783790.6734
    690170.45049    537796.03345  20243980.5964   20243982.2944
  -1740428.38148  -1356173.19844  24499126.2134   24499131.6724
 98 10 31  0  2 44.0000000  0  8G31G 3G27G13G 2G19G18G10
  -2668496.48949  -2079345.17544  21466524.8644   21466526.9314
    290878.45249    226659.93944  22222055.4414   22222057.9364
  -3363748.64049  -2621098.72944  23288603.8054   23288607.5144
  -3816215.31449  -2973669.34644  22941181.0864   22941182.5814
  -1445469.37349  -1126336.89844  25158405.4524   25158412.3514
  -1715881.89949  -1337049.72945  20783548.1254   20783550.7824
    691135.26449    538547.84045  20244164.1774   20244165.8654
  -1741481.05148  -1356993.34944  24498926.6514   24498933.4364
 98 10 31  0  2 45.0000000  0  8G31G 3G27G13G 2G19G18G10
  -2670307.19449  -2080756.09844  21466180.4004   21466182.5184
    291526.34049    227164.77644  22222178.6544   22222181.1634
  -3366444.90649  -2623199.71944  23288090.6414   23288094.2014
  -3819140.62049  -2975948.81344  22940624.1384   22940625.6294
  -1448351.49349  -1128582.65144  25157857.1634   25157865.6934
  -1717142.46549  -1338031.97845  20783308.3404   20783310.9654
    692100.36449    539299.86445  20244347.8164   20244349.4964
  -1742533.48648  -1357813.46244  24498725.7334   24498732.4244
 98 10 31  0  2 46.0000000  0  8G31G 3G27G13G 2G19G18G10
  -2672117.10849  -2082166.42644  21465835.8154   21465837.9694
    292175.03849    227670.26644  22222302.4374   22222304.8944
  -3369140.93649  -2625300.51644  23287577.9614   23287581.5404
  -3822065.45449  -2978227.89744  22940067.7074   22940069.3404
  -1451233.29949  -1130828.18944  25157308.6314   25157315.7384
  -1718402.63549  -1339013.93445  20783068.6464   20783071.3754
    693066.25749    540052.51345  20244531.5574   20244533.2054
  -1743585.19048  -1358632.99844  24498525.7194   24498531.8214
 98 10 31  0  2 47.0000000  0  8G31G 3G27G13G 2G19G18G10
  -2673926.82649  -2083576.60344  21465491.5924   21465493.6734
    292823.96049    228175.95644  22222425.6494   22222428.1014
  -3371837.32149  -2627401.58444  23287064.9864   23287068.4194
  -3824990.40249  -2980507.07544  22939510.9724   22939512.4254
  -1454115.38049  -1133073.89344  25156759.5474   25156767.4224
  -1719662.98949  -1339996.03145  20782829.0334   20782831.7264
    694032.36449    540805.32245  20244715.4874   20244717.1694
  -1744636.74048  -1359452.35044  24498325.7244   24498332.2524
 98 10 31  0  2 48.0000000  0  8G31G 3G27G13G 2G19G18G10
  -2675736.17549  -2084986.46744  21465147.1504   21465149.2344
    293473.27749    228681.88544  22222549.5254   22222551.8334
  -3374533.88849  -2629502.79144  23286551.7074   23286555.7784
  -3827915.29349  -2982786.22044  22938954.5954   22938956.4484
  -1456997.55449  -1135319.88044  25156210.8044   25156217.6344
  -1720923.35549  -1340978.13245  20782589.0614   20782591.8104
    694998.85449    541558.42845  20244899.2644   20244900.9384
  -1745687.97248  -1360271.44944  24498125.8694   24498132.0064
 98 10 31  0  2 49.0000000  0  8G31G 3G27G13G 2G19G18G10
  -2677544.95149  -2086395.89444  21464803.0034   21464804.9814
    294123.17949    229188.30344  22222673.3244   22222675.6594
  -3377230.43249  -2631604.05244  23286038.4444   23286042.4264
  -3830839.91949  -2985065.13244  22938397.6394   22938399.3714
  -1459879.63149  -1137565.64844  25155661.9524   25155669.4734
  -1722183.53449  -1341960.08445  20782349.2314   20782351.9914
    695965.92849    542311.99645  20245083.2464   20245084.9504
  -1746738.68548  -1361090.26544  24497925.9204   24497932.7664
 98 10 31  0  2 50.0000000  0  8G31G 3G27G13G 2G19G18G10
  -2679353.07049  -2087804.82044  21464458.9954   21464461.1334
    294773.76849    229695.27944  22222796.7744   22222799.2024
  -3379926.86849  -2633705.13244  23285525.6484   23285529.2814
  -3833764.19549  -2987343.81644  22937841.0964   22937842.5424
  -1462761.52249  -1139811.24944  25155114.1234   25155121.0704
  -1723443.43249  -1342941.81945  20782109.5834   20782112.3744
    696933.68449    543066.09245  20245267.2874   20245268.9504
  -1747788.79148  -1361908.63044  24497725.5424   24497731.9474
 98 10 31  0  2 51.0000000  0  8G31G 3G27G13G 2G19G18G10
  -2681160.71749  -2089213.36444  21464115.0784   21464117.1564
    295424.85449    230202.58644  22222920.8854   22222923.2704
  -3382623.38149  -2635806.30744  23285012.4204   23285015.9234
  -3836688.30249  -2989622.32844  22937284.2974   22937285.6454
  -1465643.40849  -1142056.91644  25154565.2714   25154571.8464
  -1724703.22549  -1343923.48545  20781869.9434   20781872.6394
    697901.93849    543820.57545  20245451.6124   20245453.2814
  -1748838.46648  -1362726.48044  24497525.8874   24497532.6044
 98 10 31  0  2 52.0000000  0  8G31G 3G27G13G 2G19G18G10
  -2682967.03149  -2090620.89344  21463771.4534   21463773.6414
    296077.28749    230710.99044  22223045.1734   22223047.6184
  -3385319.12149  -2637906.87244  23284499.5024   23284503.6964
  -3839611.39349  -2991900.04344  22936727.9684   22936729.3544
  -1468524.43049  -1144301.80544  25154016.8424   25154024.5604
  -1725962.08049  -1344904.40545  20781630.4364   20781633.1334
    698871.52749    544576.09945  20245636.1744   20245637.8374
  -1749886.88048  -1363543.47644  24497325.7754   24497330.8514
 98 10 31  0  2 53.0000000  0  8G31G 3G27G13G 2G19G18G10
  -2684772.27649  -2092027.57044  21463428.1404   21463430.2174
    296730.81249    231220.23844  22223169.5674   22223172.1174
  -3388014.36149  -2640007.10844  23283986.5204   23283990.7364
  -3842533.73049  -2994177.21544  22936172.0194   22936173.4374
  -1471404.87349  -1146546.25744  25153468.8844   25153477.2934
  -1727220.24749  -1345884.79445  20781391.2234   20781394.0034
    699842.19649    545332.46745  20245820.8104   20245822.4094
  -1750934.28148  -1364359.67244  24497127.2354   24497133.9734
 98 10 31  0  2 54.0000000  0  8G31G 3G27G13G 2G19G18G10
  -2686576.79749  -2093433.69144  21463084.3584   21463086.5374
    297385.08649    231730.05844  22223294.0194   22223296.5744
  -3390709.44149  -2642107.12544  23283473.7144   23283477.6344
  -3845455.65349  -2996453.97944  22935615.7924   22935617.1734
  -1474285.06149  -1148790.59544  25152920.7884   25152928.8204
  -1728478.06649  -1346864.90945  20781151.9634   20781154.7394
    700813.60149    546089.40445  20246005.8834   20246007.4724
  -1751981.02648  -1365175.26044  24496928.0784   24496933.1214
 98 10 31  0  2 55.0000000  0  8G31G 3G27G13G 2G19G18G10
  -2688380.76249  -2094839.38744  21462741.0454   21462743.2764
    298039.92749    232240.31844  22223418.4744   22223421.2954
  -3393404.53949  -2644207.22244  23282960.7164   23282965.1914
  -3848377.34149  -2998730.65044  22935059.5634   22935060.8254
  -1477165.17649  -1151034.80144  25152372.0734   25152378.3564
  -1729735.73649  -1347844.90645  20780912.5494   20780915.3134
    701785.54549    546846.76545  20246190.9374   20246192.5474
  -1753027.31248  -1365990.51244  24496728.5804   24496733.9314
 98 10 31  0  2 56.0000000  0  8G31G 3G27G13G 2G19G18G10
  -2690183.97249  -2096244.47044  21462397.7244   21462399.9134
    298695.54949    232751.19344  22223543.0694   22223545.7364
  -3396099.45449  -2646307.16544  23282448.0424   23282452.5024
  -3851298.57449  -3001006.92044  22934503.7684   22934505.4124
  -1480045.00849  -1153278.89744  25151823.6464   25151830.6594
  -1730993.03249  -1348824.61445  20780673.3644   20780676.1484
    702758.25249    547604.71945  20246376.0844   20246377.6444
  -1754072.90748  -1366805.34144  24496529.5824   24496535.7984
 98 10 31  0  2 57.0000000  0  8G31G 3G27G13G 2G19G18G10
  -2691986.56449  -2097649.09144  21462054.8074   21462056.8824
    299351.81649    233262.57144  22223667.9994   22223670.8274
  -3398794.31949  -2648407.05544  23281935.4144   23281939.6234
  -3854219.49149  -3003282.99144  22933947.9544   22933949.4654
  -1482924.70149  -1155522.81344  25151276.1184   25151283.1454
  -1732250.08749  -1349804.14145  20780434.1014   20780436.8964
    703731.58349    548363.15745  20246561.3854   20246562.9974
  -1755117.95448  -1367619.55344  24496330.8904   24496336.2324
 98 10 31  0  2 58.0000000  0  8G31G 3G27G13G 2G19G18G10
  -2693788.57949  -2099053.24644  21461712.0404   21461714.1544
    300008.67249    233774.41344  22223792.7724   22223795.4384
  -3401489.19249  -2650506.92344  23281422.3154   23281426.4104
  -3857140.13349  -3005558.80744  22933392.0024   22933393.4914
  -1485804.28849  -1157766.59444  25150728.0114   25150733.9034
  -1733506.96649  -1350783.52645  20780194.9084   20780197.6454
    704705.48549    549122.04145  20246746.6294   20246748.1974
  -1756162.50448  -1368433.72544  24496131.3704   24496138.3724
 98 10 31  0  2 59.0000000  0  8G31G 3G27G13G 2G19G18G10
  -2695590.07649  -2100457.01244  21461369.1144   21461371.2494
    300666.07649    234286.68144  22223917.7894   22223920.3554
  -3404184.11449  -2652606.83744  23280909.2434   23280913.6794
  -3860060.56349  -3007834.45444  22932836.1084   22932837.7944
  -1488683.82949  -1160010.37344  25150180.1104   25150185.6604
  -1734763.68849  -1351762.79145  20779955.8024   20779958.6154
    705679.93149    549881.34945  20246931.9794   20246933.5564
  -1757206.59948  -1369247.04844  24495932.3354   24495938.5064
 98 10 31  0  3  0.0000000  0  8G31G 3G27G13G 2G19G18G10
  -2697391.12649  -2101860.43544  21461026.5964   21461028.6834
    301323.95049    234799.28544  22224043.0804   22224045.6364
  -3406879.17049  -2654706.88244  23280396.4994   23280400.9784
  -3862980.84949  -3010109.96244  22932280.1664   22932281.6904
  -1491563.38749  -1162254.28544  25149631.8284   25149637.6374
  -1736020.33949  -1352741.99545  20779716.6394   20779719.3794
    706654.84349    550641.02045  20247117.4304   20247118.9944
  -1758250.30448  -1370060.20344  24495733.8234   24495739.2124
 98 10 31  0  3  1.0000000  0  8G31G 3G27G13G 2G19G18G10
  -2699191.60049  -2103263.39544  21460684.0464   21460686.1244
    301982.42249    235312.38644  22224168.1904   22224170.8304
  -3409574.21749  -2656806.92444  23279883.8014   23279888.6794
  -3865900.86849  -3012385.33344  22931724.4324   22931725.9354
  -1494442.84949  -1164497.96044  25149083.9244   25149089.8154
  -1737276.80049  -1353721.05845  20779477.5834   20779480.2944
    707630.34749    551401.16145  20247303.0054   20247304.5384
  -1759293.51748  -1370873.31544  24495535.1134   24495541.3254
 98 10 31  0  3  2.0000000  0  8G31G 3G27G13G 2G19G18G10
  -2700991.48449  -2104665.89544  21460341.7644   21460343.8284
    302641.50949    235825.97144  22224293.5834   22224296.2094
  -3412269.25049  -2658906.95344  23279370.7184   23279375.2114
  -3868820.60149  -3014660.45944  22931168.6494   22931169.9364
  -1497322.19049  -1166741.50444  25148536.1734   25148542.2244
  -1738533.03349  -1354699.93345  20779238.3984   20779241.1244
    708606.45549    552161.75945  20247488.6594   20247490.1614
  -1760336.19548  -1371685.83544  24495337.2004   24495344.0204
 98 10 31  0  3  3.0000000  0  8G31G 3G27G13G 2G19G18G10
  -2702790.80549  -2106067.96244  21459999.3114   21460001.4184
    303301.18449    236340.00844  22224419.0584   22224421.8254
  -3414964.28449  -2661007.00744  23278857.9134   23278862.7064
  -3871740.07349  -3016935.35744  22930613.2384   22930614.9254
  -1500201.45349  -1168985.05344  25147987.9154   25147994.0034
  -1739789.07549  -1355678.67245  20778999.2874   20779001.9454
    709583.13849    552922.81145  20247674.4704   20247675.9964
  -1761378.36348  -1372497.77644  24495139.0584   24495145.0524
 98 10 31  0  3  4.0000000  0  8G31G 3G27G13G 2G19G18G10
  -2704589.36649  -2107469.43744  21459657.2364   21459659.2534
    303961.64049    236854.65944  22224544.5464   22224547.4334
  -3417659.12149  -2663106.84844  23278345.2544   23278350.2804
  -3874659.09449  -3019209.93144  22930057.7054   22930059.4094
  -1503080.43849  -1171228.46044  25147440.3734   25147446.7584
  -1741044.75449  -1356657.12545  20778760.2714   20778762.9434
    710560.58849    553684.46145  20247860.4644   20247861.9874
  -1762419.83848  -1373309.39444  24494939.7144   24494945.1994
 98 10 31  0  3  5.0000000  0  8G31G 3G27G13G 2G19G18G10
  -2706387.68449  -2108870.70944  21459314.9014   21459316.9824
    304622.36149    237369.53144  22224670.4804   22224673.2614
  -3420354.27949  -2665207.00444  23277832.4214   23277837.2754
  -3877578.17549  -3021484.50844  22929502.2794   22929503.7594
  -1505959.67749  -1173472.03044  25146892.6594   25146900.1984
  -1742300.56449  -1357635.67745  20778521.3514   20778524.0464
    711538.28849    554446.30745  20248046.5874   20248048.1084
  -1763461.12948  -1374120.75944  24494742.8924   24494748.8474
 98 10 31  0  3  6.0000000  0  8G31G 3G27G13G 2G19G18G10
  -2708185.57049  -2110271.66944  21458973.0064   21458975.0414
    305283.53249    237884.69644  22224796.3784   22224799.3994
  -3423049.56849  -2667307.19344  23277319.5594   23277324.5304
  -3880497.13849  -3023759.03444  22928946.9404   22928948.4264
  -1508838.96749  -1175715.68844  25146344.2564   25146350.9104
  -1743556.31649  -1358614.18145  20778282.1324   20778284.8024
    712516.42649    555208.49145  20248232.7254   20248234.2504
  -1764502.04248  -1374931.87944  24494543.6594   24494549.0794
 98 10 31  0  3  7.0000000  0  8G31G 3G27G13G 2G19G18G10
  -2709982.80149  -2111672.11144  21458630.9174   21458633.0024
    305945.36349    238400.39944  22224922.6904   22224925.2874
  -3425744.77749  -2669407.33544  23276806.4014   23276811.2904
  -3883415.77049  -3026033.32744  22928391.4004   22928392.9674
  -1511718.10449  -1177959.09144  25145796.5374   25145803.9344
  -1744811.83049  -1359592.49845  20778043.2454   20778045.9404
    713495.19549    555971.16845  20248419.1104   20248420.5984
  -1765542.37248  -1375742.47144  24494346.2194   24494353.7864
 98 10 31  0  3  8.0000000  0  8G31G 3G27G13G 2G19G18G10
  -2711779.41449  -2113072.07544  21458288.7534   21458290.7094
    306607.82749    238916.63544  22225048.5954   22225051.5324
  -3428439.93449  -2671507.48544  23276293.8944   23276298.8214
  -3886334.10049  -3028307.31344  22927835.9944   22927837.3764
  -1514597.11549  -1180202.42644  25145248.6274   25145257.6104
  -1746067.10349  -1360570.63645  20777804.3544   20777807.0734
    714474.56949    556734.31845  20248605.6064   20248607.0954
  -1766582.13848  -1376552.53844  24494148.5294   24494154.2824
 98 10 31  0  3  9.0000000  0  8G31G 3G27G13G 2G19G18G10
  -2713575.58849  -2114471.67044  21457947.0474   21457949.0514
    307270.73649    239433.16444  22225174.8864   22225177.6554
  -3431135.21949  -2673607.67744  23275780.9944   23275785.6674
  -3889252.31649  -3030581.20444  22927280.5874   22927282.2114
  -1517476.18449  -1182445.99244  25144700.8244   25144707.8464
  -1747322.33249  -1361548.73145  20777565.4814   20777568.1244
    715454.36749    557497.79645  20248792.1314   20248793.5554
  -1767621.53248  -1377362.51844  24493950.6394   24493957.3394
 98 10 31  0  3 10.0000000  0  8G31G 3G27G13G 2G19G18G10
  -2715371.22049  -2115870.86944  21457605.3824   21457607.4584
    307934.18549    239950.15144  22225301.2504   22225304.2224
  -3433830.54549  -2675707.92444  23275267.6134   23275272.1374
  -3892170.32149  -3032855.03244  22926725.4624   22926726.9794
  -1520355.21049  -1184689.23644  25144152.8284   25144162.0314
  -1748577.42649  -1362526.72245  20777326.8434   20777329.4424
    716434.66949    558261.67045  20248978.7004   20248980.1204
  -1768660.45848  -1378172.08144  24493752.8254   24493762.1774
 98 10 31  0  3 11.0000000  0  8G31G 3G27G13G 2G19G18G10
  -2717166.26749  -2117269.60844  21457264.1024   21457266.0134
    308598.23349    240467.58944  22225427.7454   22225430.6264
  -3436525.85749  -2677808.14544  23274754.7234   23274758.9094
  -3895088.06349  -3035128.60044  22926170.1514   22926171.9904
  -1523234.14049  -1186932.64644  25143605.4604   25143612.6284
  -1749832.29949  -1363504.55045  20777087.8354   20777090.5084
    717415.54149    559025.98745  20249165.3454   20249166.7524
  -1769698.84347  -1378981.35944  24493554.0394   24493561.5774
 98 10 31  0  3 12.0000000  0  8G31G 3G27G13G 2G19G18G10
  -2718960.43249  -2118667.65744  21456922.7454   21456924.7454
    309263.18249    240985.73144  22225554.5384   22225557.3244
  -3439220.85749  -2679908.15144  23274241.8834   23274246.7434
  -3898005.24549  -3037401.71144  22925615.1694   22925616.7724
  -1526112.67949  -1189175.67344  25143057.6054   25143064.6934
  -1751086.67149  -1364481.98645  20776849.1484   20776851.7644
    718397.28149    559790.97845  20249352.1544   20249353.5464
  -1770736.40447  -1379789.75844  24493355.9724   24493363.2954
 98 10 31  0  3 13.0000000  0  8G31G 3G27G13G 2G19G18G10
  -2720753.89349  -2120065.15644  21456581.5194   21456583.4824
    309928.83049    241504.41844  22225680.9304   22225683.7524
  -3441915.73649  -2682008.03044  23273729.0544   23273733.7964
  -3900922.04749  -3039674.57144  22925060.5434   22925062.2304
  -1528991.01349  -1191418.43244  25142509.9604   25142516.8644
  -1752340.72349  -1365459.16745  20776610.4724   20776613.1014
    719379.68949    560556.48945  20249539.1294   20249540.4864
  -1771773.32648  -1380597.73044  24493160.0974   24493167.3824
 98 10 31  0  3 14.0000000  0  8G31G 3G27G13G 2G19G18G10
  -2722546.65849  -2121462.11144  21456240.3284   21456242.2254
    310595.19049    242023.64744  22225807.7044   22225810.7924
  -3444610.49749  -2684107.84844  23273216.3304   23273220.9014
  -3903838.46849  -3041947.06644  22924505.5014   22924506.9704
  -1531869.14049  -1193661.02244  25141962.6084   25141969.8024
  -1753594.46549  -1366436.10545  20776371.9394   20776374.5364
    720362.77149    561322.53145  20249726.0814   20249727.4204
  -1772809.60947  -1381405.26844  24492962.5214   24492971.0794
 98 10 31  0  3 15.0000000  0  8G31G 3G27G13G 2G19G18G10
  -2724338.82949  -2122858.60444  21455899.3484   21455901.3454
    311262.15849    242543.37944  22225934.3834   22225937.6064
  -3447305.23449  -2686207.69344  23272704.0904   23272708.7914
  -3906754.61149  -3044219.38344  22923950.8904   22923952.6244
  -1534747.15849  -1195903.73544  25141414.9364   25141421.0544
  -1754847.99149  -1367412.88045  20776133.5114   20776136.1714
    721346.43849    562089.02445  20249913.3364   20249914.6604
  -1773845.32947  -1382212.37544  24492763.6834   24492771.8884
 98 10 31  0  3 16.0000000  0  8G31G 3G27G13G 2G19G18G10
  -2726130.48949  -2124254.69644  21455558.5674   21455560.5084
    311929.63249    243063.46644  22226061.1024   22226064.2334
  -3450000.04649  -2688307.46144  23272191.0994   23272196.1854
  -3909670.58049  -3046491.58144  22923396.0764   22923397.8564
  -1537625.16949  -1198146.29844  25140866.8394   25140874.5584
  -1756101.39449  -1368389.55845  20775894.8504   20775897.4904
    722330.57949    562855.88645  20250100.5894   20250101.9274
  -1774880.61147  -1383018.94244  24492567.7414   24492576.8314
 98 10 31  0  3 17.0000000  0  8G31G 3G27G13G 2G19G18G10
  -2727921.40549  -2125650.21244  21455217.7314   21455219.8584
    312597.86749    243584.18244  22226188.5214   22226191.5984
  -3452694.68449  -2690407.23344  23271678.4414   23271683.6004
  -3912586.12549  -3048763.41844  22922841.2304   22922842.8834
  -1540502.92249  -1200388.75944  25140319.1374   25140325.8784
  -1757354.40249  -1369365.92045  20775656.4684   20775659.0864
    723315.45649    563623.32145  20250287.9924   20250289.3204
  -1775915.19548  -1383825.48044  24492371.7554   24492377.4304
 98 10 31  0  3 18.0000000  0  8G31G 3G27G13G 2G19G18G10
  -2729711.91849  -2127045.42244  21454876.9744   21454879.0074
    313266.52049    244105.23044  22226315.6014   22226318.5574
  -3455389.49049  -2692507.07444  23271165.5834   23271170.2064
  -3915501.58549  -3051035.20544  22922286.4124   22922287.6184
  -1543380.75949  -1202631.17244  25139771.2604   25139777.8124
  -1758607.37249  -1370342.25645  20775418.1344   20775420.7034
    724300.72649    564391.06545  20250475.5514   20250476.8014
  -1776949.43247  -1384631.15444  24492175.3524   24492183.6104
 98 10 31  0  3 19.0000000  0  8G31G 3G27G13G 2G19G18G10
  -2731501.89849  -2128440.20044  21454536.1424   21454538.2434
    313935.70349    244626.64844  22226443.4154   22226446.3784
  -3458084.34749  -2694606.92444  23270653.0614   23270657.7714
  -3918416.84149  -3053306.82144  22921732.1724   22921733.9164
  -1546258.56349  -1204873.72444  25139224.0454   25139230.7554
  -1759860.19249  -1371318.48345  20775179.7184   20775182.2824
    725286.48049    565159.18845  20250663.0804   20250664.3514
  -1777983.19948  -1385436.56144  24491978.7384   24491986.5734
 98 10 31  0  3 20.0000000  0  8G31G 3G27G13G 2G19G18G10
  -2733291.34749  -2129834.57944  21454195.4374   21454197.4384
    314605.43649    245148.53244  22226570.7884   22226573.5404
  -3460779.24149  -2696706.83644  23270140.2354   23270144.9234
  -3921331.86649  -3055578.27144  22921177.1914   22921178.4924
  -1549136.31849  -1207116.07444  25138676.2564   25138684.4894
  -1761112.83549  -1372294.56945  20774941.4294   20774943.9844
    726272.76849    565927.72145  20250850.6624   20250851.8784
  -1779016.48248  -1386241.88444  24491782.0094   24491790.2184
 98 10 31  0  3 21.0000000  0  8G31G 3G27G13G 2G19G18G10
  -2735080.30849  -2131228.55744  21453854.6754   21453856.7834
    315275.67549    245670.79344  22226698.4234   22226701.3954
  -3463474.21649  -2698806.82244  23269627.4414   23269631.8474
  -3924246.71849  -3057849.60444  22920622.9574   22920624.6664
  -1552014.07549  -1209358.43244  25138128.6174   25138136.2714
  -1762365.34849  -1373270.54745  20774703.1014   20774705.6574
    727259.52949    566696.62745  20251038.4864   20251039.7474
  -1780049.31348  -1387046.49844  24491585.8454   24491593.6834
 98 10 31  0  3 22.0000000  0  8G31G 3G27G13G 2G19G18G10
  -2736868.64349  -2132622.08244  21453514.2814   21453516.3344
    315946.54949    246193.54844  22226826.0854   22226829.3264
  -3466169.13849  -2700906.77244  23269114.6254   23269119.1354
  -3927161.23249  -3060120.66244  22920067.9424   22920069.4254
  -1554891.69449  -1211600.71244  25137580.8294   25137589.2014
  -1763617.60049  -1374246.32745  20774464.8984   20774467.4694
    728246.89649    567466.00545  20251226.2714   20251227.5054
  -1781081.57948  -1387851.13744  24491390.4774   24491398.2114
 98 10 31  0  3 23.0000000  0  8G31G 3G27G13G 2G19G18G10
  -2738656.27849  -2134015.04444  21453174.0434   21453176.0154
    316618.14549    246716.87644  22226953.7214   22226956.9254
  -3468863.93249  -2703006.65744  23268602.1134   23268606.5704
  -3930075.35349  -3062391.41244  22919513.7104   22919515.2004
  -1557769.09649  -1213842.85644  25137033.4394   25137040.6674
  -1764869.51249  -1375221.83945  20774226.5974   20774229.2274
    729234.95549    568235.92545  20251414.1424   20251415.4394
  -1782113.16948  -1388654.52444  24491193.8434   24491200.5694
 98 10 31  0  3 24.0000000  0  8G31G 3G27G13G 2G19G18G10
  -2740443.46349  -2135407.65644  21452833.8964   21452835.9304
    317290.20949    247240.58944  22227081.3294   22227084.5424
  -3471558.84749  -2705106.58544  23268089.1954   23268093.1824
  -3932989.32349  -3064662.00144  22918958.8464   22918960.5164
  -1560646.53049  -1216085.01044  25136485.9224   25136492.6954
  -1766121.32949  -1376197.28745  20773988.3494   20773990.8664
    730223.45749    569006.18145  20251602.2894   20251603.5474
  -1783144.36248  -1389458.26344  24490997.2634   24491006.3574
 98 10 31  0  3 25.0000000  0  8G31G 3G27G13G 2G19G18G10
  -2742230.02249  -2136799.77444  21452493.8084   21452495.7974
    317962.90449    247764.74544  22227209.4414   22227212.7634
  -3474253.73149  -2707206.45344  23267576.4584   23267580.7444
  -3935902.97649  -3066932.37244  22918404.8424   22918406.5604
  -1563523.83149  -1218327.06844  25135938.2294   25135945.9714
  -1767372.91349  -1377172.54245  20773750.1214   20773752.6944
    731212.55549    569776.90845  20251790.5424   20251791.8244
  -1784174.96748  -1390261.46344  24490800.7664   24490809.7804
 98 10 31  0  3 26.0000000  0  8G31G 3G27G13G 2G19G18G10
  -2744015.66749  -2138191.18244  21452153.8214   21452155.7634
    318636.53649    248289.65844  22227337.4494   22227340.6194
  -3476948.27249  -2709306.10344  23267063.4914   23267067.2984
  -3938816.01449  -3069202.27744  22917850.5734   22917852.0164
  -1566400.70649  -1220568.80344  25135391.6344   25135398.8804
  -1768623.95149  -1378147.37745  20773512.1104   20773514.5974
    732202.56349    570548.34045  20251979.1064   20251980.3254
  -1785204.68448  -1391063.88344  24490605.6844   24490614.1844
 98 10 31  0  3 27.0000000  0  8G27G13G 2G19G31G18G10G 3
  -3479643.02249  -2711405.90444  23266551.0244   23266554.8134
  -3941728.98149  -3071472.11444  22917296.0364   22917297.4154
  -1569277.69749  -1222810.63344  25134843.9514   25134850.4954
  -1769874.98749  -1379122.21245  20773274.0754   20773276.6024
  -2745800.93049  -2139582.28644  21451813.8924   21451815.9194
    733192.93949    571320.06245  20252167.6334   20252168.8514
  -1786234.07148  -1391865.89544  24490408.7794   24490416.8544
    319310.55949    248814.86744  22227465.8394   22227469.1384
 98 10 31  0  3 28.0000000  0  8G31G 3G27G13G 2G19G18G10
  -2747585.50849  -2140972.86344  21451474.5164   21451476.6004
    319985.26949    249340.60444  22227594.3844   22227597.3234
  -3482337.67549  -2713505.66344  23266038.3764   23266041.9484
  -3944641.57949  -3073741.67044  22916741.6074   22916742.9314
  -1572154.50949  -1225052.19144  25134296.3724   25134303.1804
  -1771125.73749  -1380096.81145  20773036.0824   20773038.6464
    734183.97849    572092.30545  20252356.1364   20252357.3324
  -1787262.81148  -1392667.46944  24490213.4794   24490220.1684
 98 10 31  0  3 29.0000000  0  8G31G 3G27G13G 2G19G18G10
  -2749369.47149  -2142362.96944  21451135.0824   21451137.1124
    320660.61149    249866.85144  22227722.9564   22227726.0874
  -3485032.28849  -2715605.34844  23265525.7324   23265529.2074
  -3947553.88049  -3076010.99844  22916187.5144   22916188.9944
  -1575031.19649  -1227293.80944  25133749.3064   25133756.3314
  -1772376.24649  -1381071.23945  20772798.1324   20772800.7344
    735175.63149    572865.02345  20252544.8374   20252546.0454
  -1788290.97548  -1393468.51744  24490018.3694   24490026.0954
 98 10 31  0  3 30.0000000  0  8G31G 3G27G13G 2G19G18G10
  -2751152.88449  -2143752.64244  21450795.8284   21450797.9034
    321336.52049    250393.53344  22227851.6604   22227854.8384
  -3487726.91849  -2717705.06144  23265012.7844   23265016.2264
  -3950465.94049  -3078280.16344  22915633.1664   22915634.5424
  -1577907.82049  -1229535.37144  25133202.1664   25133207.9794
  -1773626.58349  -1382045.52745  20772560.3884   20772562.9624
    736167.83249    573638.16345  20252733.7144   20252734.9284
  -1789318.60748  -1394269.22244  24489821.8134   24489828.3154
 98 10 31  0  3 31.0000000  0  8G31G 3G27G13G 2G19G18G10
  -2752935.87349  -2145141.97044  21450456.4044   21450458.4014
    322012.86049    250920.55144  22227980.4294   22227983.6814
  -3490421.70249  -2719804.88844  23264500.2314   23264503.2094
  -3953377.89849  -3080549.22344  22915079.2934   22915080.7444
  -1580784.52549  -1231776.95144  25132654.7214   25132661.4654
  -1774876.89549  -1383019.79145  20772322.3234   20772324.8514
    737160.43549    574411.62145  20252922.6004   20252923.8124
  -1790345.85848  -1395070.06344  24489626.8574   24489634.9854
 98 10 31  0  3 32.0000000  0  8G31G 3G27G13G 2G19G18G10
  -2754717.77149  -2146530.47844  21450117.3904   21450119.4734
    322690.30549    251448.43044  22228109.4494   22228112.7414
  -3493115.95849  -2721904.30144  23263987.2894   23263990.5004
  -3956289.07049  -3082817.63744  22914525.1534   22914526.4274
  -1583660.63449  -1234018.00544  25132107.8574   25132115.4454
  -1776126.48349  -1383993.49645  20772084.6794   20772087.3064
    738154.12849    575185.92745  20253111.6704   20253112.8804
  -1791372.05148  -1395869.43944  24489431.6474   24489439.6544
 98 10 31  0  3 33.0000000  0  8G31G 3G27G13G 2G19G18G10
  -2756498.86249  -2147918.33444  21449778.4454   21449780.5574
    323368.57449    251976.95544  22228238.6794   22228241.7324
  -3495809.97149  -2724003.53944  23263474.8414   23263477.9194
  -3959199.74849  -3085085.69444  22913971.3504   22913972.4944
  -1586536.42549  -1236258.89444  25131560.5504   25131568.0644
  -1777375.63149  -1384966.86345  20771846.8664   20771849.3784
    739148.61549    575960.85245  20253300.8354   20253301.9734
  -1792397.47348  -1396668.36444  24489236.9204   24489244.2694
 98 10 31  0  3 34.0000000  0  8G31G 3G27G13G 2G19G18G10
  -2758279.47849  -2149305.82044  21449439.7604   21449441.9194
    324047.30849    252505.84544  22228367.7494   22228370.7344
  -3498504.09049  -2726102.85244  23262961.8664   23262965.0344
  -3962110.26649  -3087353.63144  22913417.1804   22913418.2544
  -1589412.24249  -1238499.89444  25131013.3564   25131019.6984
  -1778624.68649  -1385940.14945  20771609.1724   20771611.7714
    740143.54849    576736.12845  20253490.1644   20253491.3394
  -1793422.45948  -1397467.28244  24489041.6064   24489048.5834
 98 10 31  0  3 35.0000000  0  8G31G 3G27G13G 2G19G18G10
  -2760059.32149  -2150692.71144  21449100.9574   21449103.1134
    324726.82449    253035.33444  22228497.3134   22228500.5324
  -3501198.00949  -2728201.99444  23262449.1714   23262452.2604
  -3965020.31949  -3089621.23544  22912863.4504   22912864.6124
  -1592287.78349  -1240740.48644  25130466.3394   25130473.1264
  -1779873.33349  -1386913.11945  20771371.4614   20771374.0724
    741139.24149    577511.98945  20253679.5944   20253680.7444
  -1794446.71148  -1398265.05544  24488846.6524   24488854.0214
 98 10 31  0  3 36.0000000  0  8G31G 3G27G13G 2G19G18G10
  -2761838.61949  -2152079.17744  21448762.3364   21448764.4754
    325406.90049    253565.27744  22228626.7954   22228630.1424
  -3503891.95049  -2730301.16644  23261936.5654   23261939.7964
  -3967930.12549  -3091888.55544  22912309.6584   22912311.0784
  -1595163.26849  -1242981.12944  25129918.8284   25129924.0934
  -1781121.80549  -1387885.95445  20771133.8904   20771136.4834
    742135.47149    578288.27545  20253869.0774   20253870.2304
  -1795470.45948  -1399063.01744  24488652.2694   24488658.6014
 98 10 31  0  3 37.0000000  0  8G31G 3G27G13G 2G19G18G10
  -2763617.31449  -2153465.15844  21448423.8184   21448425.9074
    326087.56749    254095.65844  22228756.4714   22228759.5444
  -3506585.86849  -2732400.29944  23261423.8234   23261426.6364
  -3970839.64449  -3094155.73344  22911756.0484   22911757.0034
  -1598038.63949  -1245221.55344  25129371.4484   25129378.7064
  -1782370.05849  -1388858.62045  20770896.3354   20770898.9844
    743132.28249    579065.01045  20254058.6864   20254059.8624
  -1796493.64448  -1399860.50544  24488457.2844   24488463.9754
 98 10 31  0  3 38.0000000  0  8G31G 3G27G13G 2G19G18G10
  -2765395.34449  -2154850.63944  21448085.3424   21448087.5364
    326768.92049    254626.57044  22228886.1964   22228889.0524
  -3509279.68049  -2734499.39944  23260911.0894   23260913.9554
  -3973748.79449  -3096422.61844  22911202.2674   22911203.1624
  -1600913.83249  -1247461.99444  25128824.1264   25128830.0704
  -1783617.99649  -1389831.03645  20770658.7324   20770661.3534
    744129.76149    579842.26745  20254248.5524   20254249.7254
  -1797516.21249  -1400657.67644  24488263.1704   24488270.0094
 98 10 31  0  3 39.0000000  0  8G31G13G27G 2G10G19G18G 3
  -2767172.83649  -2156235.69844  21447747.0654   21447749.3534
  -3976657.71849  -3098689.30544  22910648.9394   22910649.6134
  -3511973.51849  -2736598.48244  23260398.1784   23260400.7844
  -1603788.97949  -1249702.42344  25128277.2734   25128285.0964
  -1798538.28249  -1401453.35744  24488069.9224   24488075.0834
  -1784865.75749  -1390803.31145  20770421.2494   20770423.8184
    745127.78249    580619.94645  20254438.3874   20254439.5234
    327450.81749    255157.92644  22229015.6904   22229018.6484
 98 10 31  0  3 40.0000000  0  8G31G 3G27G13G 2G19G18G10
  -2768950.07349  -2157620.56244  21447408.6434   21447410.9114
    328132.96149    255689.47944  22229145.5214   22229148.4304
  -3514667.67249  -2738697.82644  23259885.5694   23259888.4184
  -3979566.70649  -3100956.03444  22910095.5674   22910096.4484
  -1606664.37649  -1251942.94544  25127729.8614   25127736.0644
  -1786113.64149  -1391775.69045  20770183.7914   20770186.4584
    746126.03549    581397.80845  20254628.3274   20254629.4884
  -1799560.13749  -1402249.63944  24487875.8354   24487881.1614
 98 10 31  0  3 41.0000000  0  8G31G 3G27G13G 2G19G18G10
  -2770726.64049  -2159004.89944  21447070.7024   21447072.9624
    328815.78949    256221.55244  22229275.5824   22229278.4854
  -3517361.72349  -2740797.08344  23259372.9234   23259376.0354
  -3982475.34849  -3103222.48044  22909541.6704   22909542.6164
  -1609539.60249  -1254183.38544  25127182.4394   25127189.1384
  -1787361.21749  -1392747.82045  20769946.2364   20769948.8144
    747124.95249    582176.18245  20254818.4764   20254819.6014
  -1800581.37349  -1403045.45844  24487681.1384   24487686.5754
 98 10 31  0  3 42.0000000  0  8G31G 3G27G13G 2G19G18G10
  -2772502.60449  -2160388.75944  21446732.6654   21446734.9094
    329499.21949    256754.08344  22229405.7634   22229408.7464
  -3520055.73549  -2742896.31444  23258860.5804   23258863.2574
  -3985383.69549  -3105488.73344  22908988.2764   22908989.1034
  -1612414.72249  -1256423.69844  25126635.6014   25126642.1594
  -1788608.54249  -1393719.77045  20769708.9114   20769711.4434
    748124.47049    582955.02845  20255008.6674   20255009.8344
  -1801602.03849  -1403840.70644  24487488.1214   24487492.9064
 98 10 31  0  3 43.0000000  0  8G31G 3G27G13G 2G19G18G10
  -2774278.12049  -2161772.27844  21446394.8924   21446397.3434
    330183.08949    257286.97744  22229535.9644   22229538.7564
  -3522749.85849  -2744995.63944  23258347.6004   23258350.1884
  -3988291.92549  -3107754.87144  22908434.9524   22908435.8144
  -1615289.90549  -1258664.22544  25126088.7354   25126094.6184
  -1789855.78249  -1394691.64045  20769471.4134   20769473.9774
    749124.42349    583734.20945  20255198.9794   20255200.1174
  -1802622.30349  -1404635.68044  24487293.4234   24487297.5614
 98 10 31  0  3 44.0000000  0  8G31G 3G27G13G 2G19G18G10
  -2776053.14649  -2163155.41544  21446057.3194   21446059.6394
    330867.45249    257820.26144  22229666.1464   22229668.8344
  -3525444.06349  -2747095.01144  23257834.9034   23257837.5164
  -3991199.98049  -3110020.92144  22907881.3584   22907882.6054
  -1618165.09149  -1260904.51044  25125541.5014   25125546.6984
  -1791102.88849  -1395663.40845  20769234.0994   20769236.7124
    750124.85749    584513.77845  20255389.3914   20255390.5064
  -1803642.12749  -1405430.10144  24487099.6684   24487104.3474
 98 10 31  0  3 45.0000000  0  8G31G 3G27G13G 2G19G18G10
  -2777827.76949  -2164538.24544  21445719.5644   21445721.8684
    331552.22649    258353.84944  22229796.3244   22229799.1934
  -3528138.43349  -2749194.51844  23257322.2184   23257324.7324
  -3994107.94349  -3112286.91244  22907328.2474   22907328.9764
  -1621040.38149  -1263144.99144  25124994.3714   25125001.6484
  -1792349.94149  -1396635.14345  20768996.7984   20768999.3614
    751125.69749    585293.64845  20255579.8674   20255581.0244
  -1804661.57949  -1406225.09244  24486905.1834   24486910.5654
 98 10 31  0  3 46.0000000  0  8G31G 3G27G13G 2G19G18G10
  -2779601.71349  -2165920.52044  21445382.1044   21445384.3214
    332237.66149    258887.95344  22229926.9154   22229929.6064
  -3530832.70149  -2751293.96144  23256809.3244   23256811.5494
  -3997015.56149  -3114552.55544  22906774.7034   22906775.4044
  -1623915.52049  -1265385.38244  25124446.9654   25124453.6664
  -1793596.67049  -1397606.61745  20768759.5794   20768762.1064
    752127.19049    586074.03145  20255770.5484   20255771.6654
  -1805680.41649  -1407018.78044  24486711.6114   24486715.5894
